KJ6MC Weather Reports


Display with metric or nautical units.
time (UTC)temp
F
wind
direction
speed
MPH
gust
MPH
rain 1hr
in
rain 24hr
in
rain mn
in
humidity
%
barometer
mb
20260831191546 70 264 6.0 15.0 0.00 0.00 0.00 63 1012.5
20260831191446 69 232 6.0 15.0 0.00 0.00 0.00 63 1012.4
20260831191347 69 239 6.0 15.0 0.00 0.00 0.00 63 1012.4
20260831191246 69 238 6.0 15.0 0.00 0.00 0.00 62 1012.4
20260831191206 69 224 5.0 15.0 0.00 0.00 0.00 62 1012.5
20260831191145 69 223 5.0 15.0 0.00 0.00 0.00 62 1012.5
20260831191042 70 232 5.0 15.0 0.00 0.00 0.00 62 1012.5
20260831190943 70 271 4.0 13.0 0.00 0.00 0.00 62 1012.5
20260831190842 70 222 4.0 13.0 0.00 0.00 0.00 62 1012.5
20260831190743 70 231 4.0 13.0 0.00 0.00 0.00 62 1012.4
20260831190705 70 240 4.0 13.0 0.00 0.00 0.00 62 1012.5
20260831190640 70 233 4.0 13.0 0.00 0.00 0.00 62 1012.5
20260831190534 70 295 4.0 13.0 0.00 0.00 0.00 63 1012.5
20260831190435 70 267 5.0 15.0 0.00 0.00 0.00 63 1012.5
20260831190426 69 211 5.0 15.0 0.00 0.00 0.00 63 1012.5
20260831190335 70 273 5.0 15.0 0.00 0.00 0.00 63 1012.5
20260831190316 70 225 4.0 15.0 0.00 0.00 0.00 64 1012.5
20260831190134 69 245 5.0 15.0 0.00 0.00 0.00 63 1012.5
20260831190028 69 289 5.0 15.0 0.00 0.00 0.00 63 1012.5
20260831185928 69 230 5.0 15.0 0.00 0.00 0.00 64 1012.5
20260831185829 69 250 5.0 15.0 0.00 0.00 0.00 64 1012.5
20260831185728 69 280 6.0 15.0 0.00 0.00 0.00 64 1012.5
20260831185710 69 222 6.0 15.0 0.00 0.00 0.00 64 1012.5
20260831185630 69 221 6.0 15.0 0.00 0.00 0.00 63 1012.5
20260831185524 69 239 6.0 15.0 0.00 0.00 0.00 63 1012.6
20260831185423 69 182 6.0 15.0 0.00 0.00 0.00 64 1012.6
20260831185323 69 286 6.0 15.0 0.00 0.00 0.00 64 1012.5
20260831185222 69 248 7.0 15.0 0.00 0.00 0.00 64 1012.5
20260831185206 69 291 7.0 15.0 0.00 0.00 0.00 64 1012.6
20260831185123 69 254 7.0 15.0 0.00 0.00 0.00 64 1012.6
20260831185016 68 291 7.0 15.0 0.00 0.00 0.00 64 1012.5
20260831184917 68 170 7.0 15.0 0.00 0.00 0.00 63 1012.5
20260831184816 68 218 7.0 15.0 0.00 0.00 0.00 64 1012.5
20260831184716 68 215 6.0 15.0 0.00 0.00 0.00 64 1012.6
20260831184704 68 257 7.0 15.0 0.00 0.00 0.00 64 1012.5
20260831184615 68 187 7.0 15.0 0.00 0.00 0.00 64 1012.5
20260831184510 68 231 6.0 15.0 0.00 0.00 0.00 64 1012.6
20260831184426 68 242 5.0 15.0 0.00 0.00 0.00 64 1012.6
20260831184411 68 224 6.0 15.0 0.00 0.00 0.00 64 1012.5
20260831184318 68 225 6.0 15.0 0.00 0.00 0.00 64 1012.5
20260831184310 68 253 5.0 15.0 0.00 0.00 0.00 64 1012.6
20260831184110 68 253 5.0 15.0 0.00 0.00 0.00 63 1012.5
20260831184006 68 243 5.0 12.0 0.00 0.00 0.00 64 1012.5
20260831183904 68 221 4.0 13.0 0.00 0.00 0.00 64 1012.5
20260831183804 68 192 4.0 13.0 0.00 0.00 0.00 63 1012.5
20260831183710 69 253 4.0 13.0 0.00 0.00 0.00 63 1012.5
20260831183704 69 246 4.0 13.0 0.00 0.00 0.00 63 1012.5
20260831183604 69 224 3.0 13.0 0.00 0.00 0.00 64 1012.5
20260831183500 68 186 4.0 13.0 0.00 0.00 0.00 64 1012.5
20260831183401 68 259 4.0 13.0 0.00 0.00 0.00 65 1012.5
20260831183300 68 292 4.0 13.0 0.00 0.00 0.00 65 1012.4
20260831183206 68 291 4.0 13.0 0.00 0.00 0.00 66 1012.5
20260831183200 68 291 4.0 13.0 0.00 0.00 0.00 66 1012.5
20260831183058 68 226 5.0 13.0 0.00 0.00 0.00 66 1012.5
20260831182955 67 253 5.0 13.0 0.00 0.00 0.00 66 1012.5
20260831182853 67 294 6.0 16.0 0.00 0.00 0.00 67 1012.5
20260831182752 67 224 6.0 16.0 0.00 0.00 0.00 66 1012.5
20260831182704 67 204 6.0 16.0 0.00 0.00 0.00 67 1012.5
20260831182653 67 229 6.0 16.0 0.00 0.00 0.00 67 1012.5
20260831182552 67 183 6.0 16.0 0.00 0.00 0.00 67 1012.5
20260831182453 67 260 6.0 16.0 0.00 0.00 0.00 67 1012.5
20260831182350 67 214 6.0 16.0 0.00 0.00 0.00 66 1012.5
20260831182250 67 256 6.0 16.0 0.00 0.00 0.00 67 1012.4
20260831182203 67 246 6.0 16.0 0.00 0.00 0.00 67 1012.5
20260831182148 67 250 6.0 16.0 0.00 0.00 0.00 67 1012.5
20260831182049 67 219 6.0 16.0 0.00 0.00 0.00 67 1012.5
20260831181948 67 235 5.0 16.0 0.00 0.00 0.00 66 1012.5
20260831181927 67 238 5.0 13.0 0.00 0.00 0.00 67 1012.6
20260831181849 67 242 5.0 15.0 0.00 0.00 0.00 66 1012.5
20260831181814 67 300 4.0 15.0 0.00 0.00 0.00 67 1012.6
20260831181647 67 229 5.0 13.0 0.00 0.00 0.00 68 1012.6
20260831181547 67 266 5.0 13.0 0.00 0.00 0.00 68 1012.6
20260831181444 67 226 4.0 13.0 0.00 0.00 0.00 68 1012.6
20260831181344 67 232 4.0 13.0 0.00 0.00 0.00 68 1012.6
20260831181245 67 223 5.0 13.0 0.00 0.00 0.00 67 1012.7
20260831181204 67 248 4.0 13.0 0.00 0.00 0.00 67 1012.6
20260831181145 67 226 4.0 13.0 0.00 0.00 0.00 67 1012.6
20260831181045 67 245 4.0 13.0 0.00 0.00 0.00 68 1012.7
20260831180945 67 229 4.0 13.0 0.00 0.00 0.00 68 1012.7
20260831180843 67 221 5.0 13.0 0.00 0.00 0.00 68 1012.7
20260831180741 66 233 5.0 13.0 0.00 0.00 0.00 68 1012.7
20260831180702 66 243 4.0 13.0 0.00 0.00 0.00 68 1012.7
20260831180640 66 243 4.0 13.0 0.00 0.00 0.00 68 1012.7
20260831180541 66 238 4.0 12.0 0.00 0.00 0.00 68 1012.6
20260831180440 66 248 5.0 12.0 0.00 0.00 0.00 68 1012.6
20260831180338 66 214 5.0 12.0 0.00 0.00 0.00 67 1012.7
20260831180234 67 253 4.0 12.0 0.00 0.00 0.00 67 1012.6
20260831180157 67 239 4.0 11.0 0.00 0.00 0.00 68 1012.7
20260831180133 67 250 4.0 11.0 0.00 0.00 0.00 68 1012.7
20260831180033 67 239 4.0 11.0 0.00 0.00 0.00 68 1012.7
20260831175933 67 253 4.0 12.0 0.00 0.00 0.00 67 1012.7
20260831175832 67 229 4.0 12.0 0.00 0.00 0.00 68 1012.7
20260831175726 66 235 4.0 12.0 0.00 0.00 0.00 68 1012.6
20260831175652 66 290 4.0 12.0 0.00 0.00 0.00 68 1012.7
20260831175628 66 208 4.0 12.0 0.00 0.00 0.00 68 1012.7
20260831175527 66 266 5.0 12.0 0.00 0.00 0.00 68 1012.6
20260831175426 66 277 5.0 12.0 0.00 0.00 0.00 68 1012.7
20260831175326 66 276 5.0 12.0 0.00 0.00 0.00 68 1012.6
20260831175222 66 243 5.0 13.0 0.00 0.00 0.00 69 1012.7
20260831175145 66 227 5.0 13.0 0.00 0.00 0.00 69 1012.6
20260831175121 66 217 5.0 13.0 0.00 0.00 0.00 69 1012.6
20260831175021 66 240 5.0 13.0 0.00 0.00 0.00 69 1012.6
20260831174920 66 242 5.0 13.0 0.00 0.00 0.00 69 1012.6
20260831174820 66 248 5.0 13.0 0.00 0.00 0.00 69 1012.5
20260831174715 66 221 5.0 13.0 0.00 0.00 0.00 69 1012.5
20260831174639 66 205 4.0 13.0 0.00 0.00 0.00 69 1012.5
20260831174615 66 253 4.0 13.0 0.00 0.00 0.00 69 1012.5
20260831174515 66 217 4.0 13.0 0.00 0.00 0.00 70 1012.5
20260831174415 66 228 4.0 13.0 0.00 0.00 0.00 70 1012.5
20260831174314 65 256 4.0 13.0 0.00 0.00 0.00 70 1012.5
20260831174208 65 232 4.0 12.0 0.00 0.00 0.00 70 1012.4
20260831174133 65 201 4.0 12.0 0.00 0.00 0.00 70 1012.4
20260831174108 65 238 4.0 12.0 0.00 0.00 0.00 70 1012.5
20260831174009 65 281 5.0 13.0 0.00 0.00 0.00 70 1012.4
20260831173908 65 236 5.0 15.0 0.00 0.00 0.00 70 1012.5
20260831173852 65 278 6.0 15.0 0.00 0.00 0.00 71 1012.5
20260831173809 65 233 5.0 15.0 0.00 0.00 0.00 70 1012.5
20260831173741 65 311 6.0 15.0 0.00 0.00 0.00 70 1012.5
20260831173602 65 256 6.0 15.0 0.00 0.00 0.00 71 1012.5
20260831173505 65 287 6.0 15.0 0.00 0.00 0.00 71 1012.5
20260831173402 65 235 6.0 15.0 0.00 0.00 0.00 71 1012.5
20260831173301 65 256 6.0 15.0 0.00 0.00 0.00 71 1012.5
20260831173156 65 264 6.0 15.0 0.00 0.00 0.00 71 1012.6
20260831173121 65 249 6.0 15.0 0.00 0.00 0.00 70 1012.6
20260831173056 65 242 5.0 15.0 0.00 0.00 0.00 70 1012.6
20260831172957 65 208 5.0 15.0 0.00 0.00 0.00 71 1012.5
20260831172856 65 225 4.0 10.0 0.00 0.00 0.00 71 1012.5
20260831172756 65 267 5.0 11.0 0.00 0.00 0.00 71 1012.5
20260831172650 65 222 4.0 11.0 0.00 0.00 0.00 72 1012.5
20260831172615 65 217 4.0 11.0 0.00 0.00 0.00 72 1012.6
20260831172550 65 225 4.0 11.0 0.00 0.00 0.00 72 1012.6
20260831172450 65 193 4.0 11.0 0.00 0.00 0.00 72 1012.5
20260831172351 65 188 5.0 11.0 0.00 0.00 0.00 71 1012.5
20260831172250 65 250 5.0 14.0 0.00 0.00 0.00 72 1012.4
20260831172144 65 235 5.0 14.0 0.00 0.00 0.00 73 1012.4
20260831172109 65 242 6.0 14.0 0.00 0.00 0.00 73 1012.4
20260831172044 64 233 6.0 14.0 0.00 0.00 0.00 73 1012.4
20260831171945 64 257 6.0 14.0 0.00 0.00 0.00 73 1012.4
20260831171845 64 245 6.0 14.0 0.00 0.00 0.00 72 1012.4
20260831171744 64 269 6.0 14.0 0.00 0.00 0.00 73 1012.5
20260831171641 64 203 6.0 14.0 0.00 0.00 0.00 73 1012.4
20260831171603 64 225 6.0 14.0 0.00 0.00 0.00 73 1012.4
20260831171541 64 155 6.0 14.0 0.00 0.00 0.00 73 1012.4
20260831171441 64 224 6.0 14.0 0.00 0.00 0.00 73 1012.4
20260831171340 64 271 6.0 14.0 0.00 0.00 0.00 73 1012.4
20260831171238 64 256 5.0 12.0 0.00 0.00 0.00 73 1012.4
20260831171132 64 211 5.0 12.0 0.00 0.00 0.00 73 1012.4
20260831171058 64 245 4.0 12.0 0.00 0.00 0.00 73 1012.4
20260831171032 64 250 4.0 12.0 0.00 0.00 0.00 73 1012.4
20260831170932 64 257 4.0 12.0 0.00 0.00 0.00 73 1012.4
20260831170832 64 253 4.0 12.0 0.00 0.00 0.00 73 1012.4
20260831170815 64 276 4.0 12.0 0.00 0.00 0.00 74 1012.4
20260831170732 64 239 4.0 12.0 0.00 0.00 0.00 73 1012.4
20260831170705 64 256 4.0 12.0 0.00 0.00 0.00 74 1012.4
20260831170526 64 248 4.0 12.0 0.00 0.00 0.00 74 1012.4
20260831170426 64 246 5.0 12.0 0.00 0.00 0.00 74 1012.3
20260831170326 64 233 5.0 16.0 0.00 0.00 0.00 74 1012.4
20260831170225 64 226 5.0 16.0 0.00 0.00 0.00 74 1012.3
20260831170123 64 277 5.0 16.0 0.00 0.00 0.00 75 1012.4
20260831170058 64 268 5.0 16.0 0.00 0.00 0.00 74 1012.3
20260831170021 64 281 5.0 16.0 0.00 0.00 0.00 74 1012.3
20260831165921 64 298 5.0 16.0 0.00 0.00 0.00 74 1012.3
20260831165820 64 248 5.0 16.0 0.00 0.00 0.00 73 1012.4
20260831165720 64 231 4.0 16.0 0.00 0.00 0.00 74 1012.3
20260831165615 64 282 4.0 16.0 0.00 0.00 0.00 74 1012.3
20260831165539 64 226 4.0 16.0 0.00 0.00 0.00 73 1012.3
20260831165514 64 260 4.0 16.0 0.00 0.00 0.00 73 1012.3
20260831165414 64 231 4.0 16.0 0.00 0.00 0.00 72 1012.3
20260831165314 64 203 3.0 11.0 0.00 0.00 0.00 73 1012.3
20260831165255 64 245 4.0 11.0 0.00 0.00 0.00 75 1012.3
20260831165213 64 224 4.0 9.0 0.00 0.00 0.00 75 1012.2
20260831165145 64 228 4.0 11.0 0.00 0.00 0.00 75 1012.3
20260831165009 64 269 5.0 11.0 0.00 0.00 0.00 75 1012.2
20260831164908 64 235 5.0 12.0 0.00 0.00 0.00 75 1012.3
20260831164808 63 228 5.0 12.0 0.00 0.00 0.00 75 1012.2
20260831164709 63 214 5.0 12.0 0.00 0.00 0.00 75 1012.3
20260831164602 63 210 5.0 12.0 0.00 0.00 0.00 75 1012.3
20260831164527 63 245 5.0 12.0 0.00 0.00 0.00 75 1012.3
20260831164505 63 275 4.0 12.0 0.00 0.00 0.00 75 1012.3
20260831164402 63 284 4.0 12.0 0.00 0.00 0.00 76 1012.3
20260831164302 63 266 5.0 12.0 0.00 0.00 0.00 76 1012.3
20260831164202 63 245 4.0 12.0 0.00 0.00 0.00 75 1012.3
20260831164057 63 248 5.0 14.0 0.00 0.00 0.00 75 1012.3
20260831164022 63 249 5.0 14.0 0.00 0.00 0.00 75 1012.3
20260831164009 63 219 5.0 14.0 0.00 0.00 0.00 76 1012.2
20260831163957 63 246 4.0 14.0 0.00 0.00 0.00 75 1012.3
20260831163856 63 239 4.0 14.0 0.00 0.00 0.00 75 1012.3
20260831163846 63 243 4.0 14.0 0.00 0.00 0.00 75 1012.2
20260831163656 63 273 5.0 14.0 0.00 0.00 0.00 76 1012.2
20260831163626 63 262 5.0 14.0 0.00 0.00 0.00 76 1012.2
20260831163450 63 231 5.0 14.0 0.00 0.00 0.00 76 1012.2
20260831163350 63 210 6.0 14.0 0.00 0.00 0.00 77 1012.2
20260831163251 63 201 6.0 14.0 0.00 0.00 0.00 76 1012.2
20260831163150 63 264 6.0 14.0 0.00 0.00 0.00 76 1012.1
20260831163044 63 218 5.0 11.0 0.00 0.00 0.00 76 1012.2
20260831163009 63 238 5.0 11.0 0.00 0.00 0.00 76 1012.1
20260831162944 63 212 5.0 11.0 0.00 0.00 0.00 77 1012.1
20260831162845 63 232 5.0 10.0 0.00 0.00 0.00 77 1012.1
20260831162744 63 287 5.0 17.0 0.00 0.00 0.00 77 1012.1
20260831162725 63 240 4.0 17.0 0.00 0.00 0.00 77 1012.2
20260831162646 63 304 5.0 17.0 0.00 0.00 0.00 77 1012.2
20260831162616 63 260 5.0 17.0 0.00 0.00 0.00 77 1012.1
20260831162438 63 264 4.0 17.0 0.00 0.00 0.00 76 1012.2
20260831162338 63 239 4.0 17.0 0.00 0.00 0.00 76 1012.2
20260831162239 63 245 4.0 17.0 0.00 0.00 0.00 76 1012.2
20260831162218 63 231 4.0 17.0 0.00 0.00 0.00 77 1012.2
20260831162138 63 266 4.0 17.0 0.00 0.00 0.00 76 1012.2
20260831162107 63 253 4.0 17.0 0.00 0.00 0.00 77 1012.2
20260831161932 63 245 4.0 17.0 0.00 0.00 0.00 76 1012.2
20260831161832 63 249 4.0 17.0 0.00 0.00 0.00 76 1012.2
20260831161733 63 205 4.0 11.0 0.00 0.00 0.00 77 1012.2
20260831161631 63 242 4.0 11.0 0.00 0.00 0.00 77 1012.2
20260831161528 63 273 4.0 11.0 0.00 0.00 0.00 77 1012.2
20260831161451 63 222 4.0 11.0 0.00 0.00 0.00 77 1012.2
20260831161426 62 228 4.0 11.0 0.00 0.00 0.00 77 1012.2
20260831161326 62 236 4.0 11.0 0.00 0.00 0.00 77 1012.1
20260831161226 62 259 5.0 11.0 0.00 0.00 0.00 78 1012.1
20260831161126 62 218 5.0 11.0 0.00 0.00 0.00 78 1012.1
20260831161021 62 294 5.0 12.0 0.00 0.00 0.00 78 1012.2
20260831160952 62 218 5.0 12.0 0.00 0.00 0.00 78 1012.2
20260831160920 62 232 5.0 12.0 0.00 0.00 0.00 78 1012.2
20260831160820 62 232 4.0 12.0 0.00 0.00 0.00 78 1012.1
20260831160727 62 250 5.0 13.0 0.00 0.00 0.00 78 1012.2
20260831160721 62 239 4.0 12.0 0.00 0.00 0.00 79 1012.2
20260831160623 62 228 5.0 13.0 0.00 0.00 0.00 78 1012.2
20260831160615 62 219 5.0 13.0 0.00 0.00 0.00 78 1012.2
20260831160414 62 193 5.0 13.0 0.00 0.00 0.00 78 1012.2
20260831160314 62 238 4.0 13.0 0.00 0.00 0.00 79 1012.2
20260831160215 62 229 4.0 13.0 0.00 0.00 0.00 79 1012.1
20260831160114 62 235 4.0 13.0 0.00 0.00 0.00 79 1012.1
20260831160009 62 135 4.0 15.0 0.00 0.00 0.00 79 1012.1
20260831155956 61 176 4.0 15.0 0.00 0.00 0.00 79 1012.1
20260831155908 61 270 5.0 15.0 0.00 0.00 0.00 79 1012.1
20260831155808 61 249 5.0 15.0 0.00 0.00 0.00 79 1012.2
20260831155709 61 253 5.0 15.0 0.00 0.00 0.00 79 1012.2
20260831155608 61 226 5.0 15.0 0.00 0.00 0.00 79 1012.1
20260831155507 61 248 5.0 15.0 0.00 0.00 0.00 80 1012.1
20260831155452 61 225 5.0 15.0 0.00 0.00 0.00 80 1012.1
20260831155407 61 321 6.0 15.0 0.00 0.00 0.00 80 1012.1
20260831155306 61 236 6.0 15.0 0.00 0.00 0.00 80 1012.1
20260831155204 61 245 7.0 15.0 0.00 0.00 0.00 80 1012.1
20260831155105 61 232 7.0 15.0 0.00 0.00 0.00 80 1012.1
20260831155005 61 233 7.0 15.0 0.00 0.00 0.00 81 1012.1
20260831154952 61 207 7.0 15.0 0.00 0.00 0.00 81 1012.1
20260831154904 61 247 7.0 15.0 0.00 0.00 0.00 80 1012.2
20260831154805 61 218 7.0 15.0 0.00 0.00 0.00 80 1012.2
20260831154705 61 238 7.0 15.0 0.00 0.00 0.00 81 1012.1
20260831154604 61 250 7.0 15.0 0.00 0.00 0.00 81 1012.1
20260831154504 61 240 6.0 13.0 0.00 0.00 0.00 81 1012.1
20260831154451 61 276 6.0 13.0 0.00 0.00 0.00 81 1012.1
20260831154404 61 255 6.0 13.0 0.00 0.00 0.00 81 1012.1
20260831154304 61 224 6.0 13.0 0.00 0.00 0.00 81 1012.1
20260831154204 61 235 6.0 13.0 0.00 0.00 0.00 81 1012.1
20260831154105 61 231 5.0 13.0 0.00 0.00 0.00 80 1012.1
20260831154004 61 266 5.0 12.0 0.00 0.00 0.00 80 1012.1
20260831153950 61 224 5.0 12.0 0.00 0.00 0.00 80 1012.1
20260831153903 61 235 5.0 12.0 0.00 0.00 0.00 80 1012.1
20260831153759 61 201 4.0 12.0 0.00 0.00 0.00 80 1012.1
20260831153717 61 259 4.0 12.0 0.00 0.00 0.00 81 1012.1
20260831153658 61 252 4.0 12.0 0.00 0.00 0.00 81 1012.1
20260831153605 61 230 4.0 12.0 0.00 0.00 0.00 81 1012.1
20260831153556 61 233 4.0 12.0 0.00 0.00 0.00 81 1012.1
20260831153358 61 219 4.0 12.0 0.00 0.00 0.00 81 1012.1
20260831153252 61 248 4.0 12.0 0.00 0.00 0.00 81 1012.1
20260831153153 61 253 4.0 12.0 0.00 0.00 0.00 80 1012.1
20260831153054 61 248 4.0 12.0 0.00 0.00 0.00 81 1012.1
20260831152956 61 245 4.0 12.0 0.00 0.00 0.00 81 1012.1
20260831152950 61 232 4.0 12.0 0.00 0.00 0.00 81 1012.1
20260831152852 61 240 4.0 12.0 0.00 0.00 0.00 81 1012.1
20260831152750 61 218 4.0 12.0 0.00 0.00 0.00 81 1012.1
20260831152650 61 238 3.0 12.0 0.00 0.00 0.00 82 1012.1
20260831152550 60 250 4.0 12.0 0.00 0.00 0.00 82 1012.0
20260831152449 60 280 4.0 12.0 0.00 0.00 0.00 82 1012.0
20260831152345 60 231 4.0 12.0 0.00 0.00 0.00 82 1012.0
20260831152240 60 264 3.0 12.0 0.00 0.00 0.00 81 1012.0
20260831152141 60 238 3.0 10.0 0.00 0.00 0.00 82 1012.0
20260831152040 60 239 3.0 10.0 0.00 0.00 0.00 82 1012.0
20260831151948 60 264 4.0 10.0 0.00 0.00 0.00 82 1012.0
20260831151941 60 266 4.0 10.0 0.00 0.00 0.00 82 1012.0
20260831151840 60 340 4.0 11.0 0.00 0.00 0.00 82 1012.0
20260831151737 60 203 4.0 11.0 0.00 0.00 0.00 82 1012.0
20260831151635 60 236 4.0 11.0 0.00 0.00 0.00 83 1012.0
20260831151535 60 252 4.0 11.0 0.00 0.00 0.00 83 1012.0
20260831151446 60 233 5.0 11.0 0.00 0.00 0.00 83 1012.0
20260831151434 60 271 5.0 11.0 0.00 0.00 0.00 83 1012.0
20260831151333 60 221 5.0 11.0 0.00 0.00 0.00 83 1012.0
20260831151229 60 215 5.0 11.0 0.00 0.00 0.00 83 1012.0
20260831151212 60 277 4.0 11.0 0.00 0.00 0.00 83 1012.0
20260831151129 60 253 5.0 11.0 0.00 0.00 0.00 83 1012.0
20260831151056 60 223 5.0 11.0 0.00 0.00 0.00 83 1012.0
20260831150928 60 259 4.0 11.0 0.00 0.00 0.00 83 1012.0
20260831150827 60 263 4.0 11.0 0.00 0.00 0.00 83 1012.0
20260831150722 60 236 4.0 11.0 0.00 0.00 0.00 83 1011.9
20260831150625 60 238 4.0 11.0 0.00 0.00 0.00 83 1011.9
20260831150523 60 169 3.0 11.0 0.00 0.00 0.00 83 1011.9
20260831150446 60 243 3.0 11.0 0.00 0.00 0.00 83 1011.9
20260831150423 60 219 3.0 11.0 0.00 0.00 0.00 83 1011.9
20260831150322 60 245 3.0 9.0 0.00 0.00 0.00 83 1011.8
20260831150219 60 231 3.0 9.0 0.00 0.00 0.00 83 1011.8
20260831150116 59 162 2.0 9.0 0.00 0.00 0.00 84 1011.8
20260831150017 59 266 2.0 9.0 0.00 0.00 0.00 84 1011.8
20260831145946 59 231 2.0 9.0 0.00 0.00 0.00 84 1011.8
20260831145917 59 212 2.0 9.0 0.00 0.00 0.00 84 1011.8
20260831145816 59 233 2.0 9.0 0.00 0.00 0.00 84 1011.8
20260831145710 59 233 2.0 9.0 0.00 0.00 0.00 84 1011.8
20260831145611 59 218 2.0 9.0 0.00 0.00 0.00 84 1011.7
20260831145509 59 242 3.0 9.0 0.00 0.00 0.00 84 1011.7
20260831145446 59 257 3.0 8.0 0.00 0.00 0.00 84 1011.7
20260831145408 59 289 2.0 8.0 0.00 0.00 0.00 84 1011.7
20260831145309 59 235 3.0 8.0 0.00 0.00 0.00 84 1011.7
20260831145208 59 218 3.0 8.0 0.00 0.00 0.00 85 1011.7
20260831145203 59 235 2.0 8.0 0.00 0.00 0.00 84 1011.7
20260831145103 59 250 3.0 8.0 0.00 0.00 0.00 84 1011.7
20260831145054 59 233 3.0 8.0 0.00 0.00 0.00 85 1011.7
20260831144925 59 263 3.0 11.0 0.00 0.00 0.00 85 1011.6
20260831144902 59 224 3.0 8.0 0.00 0.00 0.00 85 1011.7
20260831144817 59 226 3.0 9.0 0.00 0.00 0.00 85 1011.6
20260831144658 59 238 3.0 11.0 0.00 0.00 0.00 85 1011.6
20260831144557 59 236 3.0 11.0 0.00 0.00 0.00 85 1011.6
20260831144548 59 250 3.0 11.0 0.00 0.00 0.00 85 1011.6
20260831144356 59 226 3.0 11.0 0.00 0.00 0.00 85 1011.6
20260831144255 59 256 3.0 11.0 0.00 0.00 0.00 85 1011.6
20260831144150 59 256 3.0 11.0 0.00 0.00 0.00 85 1011.6
20260831144050 59 221 3.0 11.0 0.00 0.00 0.00 85 1011.6
20260831143951 58 243 3.0 11.0 0.00 0.00 0.00 85 1011.6
20260831143936 58 245 3.0 11.0 0.00 0.00 0.00 85 1011.6
20260831143851 58 279 3.0 11.0 0.00 0.00 0.00 85 1011.6
20260831143750 58 212 3.0 11.0 0.00 0.00 0.00 85 1011.5
20260831143646 58 252 3.0 11.0 0.00 0.00 0.00 85 1011.6
20260831143544 58 321 3.0 11.0 0.00 0.00 0.00 85 1011.5
20260831143445 58 238 3.0 10.0 0.00 0.00 0.00 86 1011.5
20260831143430 58 250 3.0 10.0 0.00 0.00 0.00 86 1011.5
20260831143344 58 230 3.0 10.0 0.00 0.00 0.00 86 1011.5
20260831143244 58 212 2.0 10.0 0.00 0.00 0.00 86 1011.5
20260831143140 58 271 3.0 10.0 0.00 0.00 0.00 86 1011.5
20260831143038 58 203 3.0 10.0 0.00 0.00 0.00 86 1011.5
20260831142939 58 232 3.0 10.0 0.00 0.00 0.00 86 1011.5
20260831142925 58 221 3.0 10.0 0.00 0.00 0.00 86 1011.5
20260831142838 58 297 2.0 10.0 0.00 0.00 0.00 86 1011.5
20260831142738 58 191 2.0 9.0 0.00 0.00 0.00 86 1011.5
20260831142647 58 232 3.0 10.0 0.00 0.00 0.00 86 1011.5
20260831142640 58 250 2.0 9.0 0.00 0.00 0.00 86 1011.5
20260831142536 58 231 2.0 9.0 0.00 0.00 0.00 86 1011.4
20260831142524 58 267 3.0 9.0 0.00 0.00 0.00 86 1011.5
20260831142335 58 245 3.0 13.0 0.00 0.00 0.00 86 1011.5
20260831142232 58 293 3.0 13.0 0.00 0.00 0.00 86 1011.4
20260831142128 58 250 4.0 13.0 0.00 0.00 0.00 86 1011.4
20260831142026 58 284 4.0 13.0 0.00 0.00 0.00 86 1011.4
20260831141926 58 291 4.0 13.0 0.00 0.00 0.00 87 1011.4
20260831141913 58 203 4.0 13.0 0.00 0.00 0.00 87 1011.4
20260831141826 58 256 4.0 13.0 0.00 0.00 0.00 86 1011.4
20260831141726 58 266 4.0 13.0 0.00 0.00 0.00 87 1011.4
20260831141621 58 280 4.0 13.0 0.00 0.00 0.00 87 1011.4
20260831141520 58 300 5.0 13.0 0.00 0.00 0.00 87 1011.3
20260831141421 58 231 5.0 13.0 0.00 0.00 0.00 87 1011.4
20260831141406 58 235 4.0 13.0 0.00 0.00 0.00 87 1011.3
20260831141320 58 243 4.0 10.0 0.00 0.00 0.00 87 1011.3
20260831141220 58 236 4.0 10.0 0.00 0.00 0.00 87 1011.3
20260831141116 58 240 4.0 10.0 0.00 0.00 0.00 87 1011.3
20260831141014 58 214 4.0 10.0 0.00 0.00 0.00 87 1011.3
20260831140914 58 224 3.0 10.0 0.00 0.00 0.00 87 1011.3
20260831140900 58 245 3.0 10.0 0.00 0.00 0.00 87 1011.2
20260831140815 58 243 3.0 10.0 0.00 0.00 0.00 87 1011.2
20260831140714 57 219 3.0 10.0 0.00 0.00 0.00 87 1011.2
20260831140626 57 259 2.0 9.0 0.00 0.00 0.00 87 1011.1
20260831140609 57 233 3.0 10.0 0.00 0.00 0.00 87 1011.2
20260831140508 57 256 3.0 10.0 0.00 0.00 0.00 87 1011.2
20260831140440 57 222 2.0 9.0 0.00 0.00 0.00 87 1011.1
20260831140308 57 226 2.0 9.0 0.00 0.00 0.00 87 1011.1
20260831140208 57 271 2.0 10.0 0.00 0.00 0.00 87 1011.1
20260831140105 57 233 2.0 10.0 0.00 0.00 0.00 87 1011.1
20260831140004 57 240 2.0 10.0 0.00 0.00 0.00 87 1011.0
20260831135902 57 262 2.0 10.0 0.00 0.00 0.00 87 1011.0
20260831135848 57 226 2.0 10.0 0.00 0.00 0.00 87 1011.0
20260831135803 57 228 2.0 10.0 0.00 0.00 0.00 87 1011.0
20260831135702 57 231 2.0 10.0 0.00 0.00 0.00 87 1011.0
20260831135559 57 238 2.0 10.0 0.00 0.00 0.00 87 1011.0
20260831135459 57 248 2.0 10.0 0.00 0.00 0.00 87 1011.0
20260831135358 57 267 2.0 10.0 0.00 0.00 0.00 87 1011.0
20260831135342 57 231 2.0 10.0 0.00 0.00 0.00 87 1011.0
20260831135259 57 217 3.0 10.0 0.00 0.00 0.00 87 1011.0
20260831135156 57 271 3.0 9.0 0.00 0.00 0.00 87 1011.0
20260831135053 57 253 3.0 9.0 0.00 0.00 0.00 87 1011.0
20260831134950 57 234 2.0 9.0 0.00 0.00 0.00 87 1011.0
20260831134850 57 243 2.0 9.0 0.00 0.00 0.00 87 1011.0
20260831134836 57 232 2.0 9.0 0.00 0.00 0.00 87 1011.0
20260831134750 57 301 2.0 9.0 0.00 0.00 0.00 87 1010.9
20260831134649 57 242 2.0 9.0 0.00 0.00 0.00 87 1011.0
20260831134545 57 248 2.0 9.0 0.00 0.00 0.00 87 1011.0
20260831134444 57 250 2.0 9.0 0.00 0.00 0.00 87 1011.0
20260831134329 57 250 2.0 9.0 0.00 0.00 0.00 87 1010.9
20260831134244 57 274 2.0 9.0 0.00 0.00 0.00 87 1010.9
20260831134144 57 236 2.0 8.0 0.00 0.00 0.00 87 1010.9
20260831134042 57 217 2.0 8.0 0.00 0.00 0.00 87 1011.0
20260831133942 57 226 2.0 8.0 0.00 0.00 0.00 87 1010.9
20260831133824 57 232 2.0 8.0 0.00 0.00 0.00 87 1010.9
20260831133740 57 232 2.0 8.0 0.00 0.00 0.00 87 1010.9
20260831133639 57 253 2.0 8.0 0.00 0.00 0.00 87 1010.9
20260831133535 57 263 2.0 8.0 0.00 0.00 0.00 87 1010.8
20260831133432 57 264 2.0 8.0 0.00 0.00 0.00 87 1010.8
20260831133333 57 305 2.0 7.0 0.00 0.00 0.00 87 1010.8
20260831133318 57 263 2.0 7.0 0.00 0.00 0.00 87 1010.8
20260831133232 57 259 2.0 7.0 0.00 0.00 0.00 87 1010.8
20260831133132 57 259 2.0 7.0 0.00 0.00 0.00 87 1010.8
20260831133026 57 222 2.0 9.0 0.00 0.00 0.00 87 1010.8
20260831132927 57 253 2.0 9.0 0.00 0.00 0.00 87 1010.8
20260831132826 57 270 2.0 9.0 0.00 0.00 0.00 87 1010.8
20260831132813 57 231 2.0 9.0 0.00 0.00 0.00 87 1010.8
20260831132726 57 263 2.0 9.0 0.00 0.00 0.00 87 1010.8
20260831132626 57 228 2.0 9.0 0.00 0.00 0.00 87 1010.7
20260831132523 57 222 3.0 9.0 0.00 0.00 0.00 87 1010.8
20260831132423 57 297 3.0 9.0 0.00 0.00 0.00 87 1010.8
20260831132322 57 246 3.0 9.0 0.00 0.00 0.00 87 1010.7
20260831132307 57 232 3.0 9.0 0.00 0.00 0.00 87 1010.8
20260831132222 57 242 3.0 9.0 0.00 0.00 0.00 87 1010.8
20260831132120 57 259 3.0 9.0 0.00 0.00 0.00 87 1010.7
20260831132016 57 204 3.0 9.0 0.00 0.00 0.00 87 1010.8
20260831131914 57 250 3.0 9.0 0.00 0.00 0.00 87 1010.8
20260831131814 57 248 3.0 9.0 0.00 0.00 0.00 87 1010.7
20260831131800 57 241 3.0 9.0 0.00 0.00 0.00 87 1010.8
20260831131715 57 244 3.0 9.0 0.00 0.00 0.00 87 1010.8
20260831131618 57 255 3.0 9.0 0.00 0.00 0.00 87 1010.8
20260831131517 57 241 3.0 9.0 0.00 0.00 0.00 87 1010.8
20260831131508 57 246 3.0 9.0 0.00 0.00 0.00 87 1010.8
20260831131409 57 212 3.0 9.0 0.00 0.00 0.00 87 1010.8
20260831131400 57 259 3.0 9.0 0.00 0.00 0.00 87 1010.8
20260831131208 57 225 3.0 9.0 0.00 0.00 0.00 87 1010.7
20260831131108 57 217 3.0 9.0 0.00 0.00 0.00 87 1010.7
20260831131006 57 273 3.0 11.0 0.00 0.00 0.00 87 1010.8
20260831130907 57 233 3.0 11.0 0.00 0.00 0.00 87 1010.8
20260831130806 57 231 3.0 11.0 0.00 0.00 0.00 87 1010.8
20260831130748 57 232 3.0 11.0 0.00 0.00 0.00 87 1010.8
20260831130704 57 286 3.0 11.0 0.00 0.00 0.00 86 1010.7
20260831130602 57 245 3.0 11.0 0.00 0.00 0.00 86 1010.7
20260831130456 57 245 3.0 11.0 0.00 0.00 0.00 86 1010.7
20260831130357 57 243 4.0 11.0 0.00 0.00 0.00 87 1010.6
20260831130256 57 257 3.0 11.0 0.00 0.00 0.00 87 1010.6
20260831130241 57 226 3.0 11.0 0.00 0.00 0.00 87 1010.6
20260831130156 57 228 3.0 11.0 0.00 0.00 0.00 87 1010.7
20260831130056 57 239 3.0 11.0 0.00 0.00 0.00 87 1010.7
20260831125950 57 267 2.0 8.0 0.00 0.00 0.00 87 1010.7
20260831125851 57 240 2.0 8.0 0.00 0.00 0.00 87 1010.7
20260831125750 57 287 2.0 8.0 0.00 0.00 0.00 87 1010.7
20260831125736 57 260 2.0 8.0 0.00 0.00 0.00 87 1010.7
20260831125650 57 193 2.0 8.0 0.00 0.00 0.00 87 1010.7
20260831125550 57 236 2.0 8.0 0.00 0.00 0.00 87 1010.6
20260831125449 57 240 2.0 8.0 0.00 0.00 0.00 87 1010.6
20260831125349 57 243 2.0 6.0 0.00 0.00 0.00 86 1010.6
20260831125248 57 229 2.0 7.0 0.00 0.00 0.00 86 1010.6
20260831125230 57 203 2.0 7.0 0.00 0.00 0.00 86 1010.6
20260831125147 57 239 2.0 7.0 0.00 0.00 0.00 86 1010.6
20260831125043 57 233 2.0 7.0 0.00 0.00 0.00 86 1010.6
20260831124941 57 233 2.0 7.0 0.00 0.00 0.00 86 1010.6
20260831124838 57 235 2.0 7.0 0.00 0.00 0.00 86 1010.6
20260831124738 57 266 2.0 7.0 0.00 0.00 0.00 86 1010.6
20260831124724 57 217 2.0 7.0 0.00 0.00 0.00 86 1010.6
20260831124639 57 290 2.0 7.0 0.00 0.00 0.00 86 1010.6
20260831124538 57 243 2.0 7.0 0.00 0.00 0.00 86 1010.6
20260831124442 57 260 1.0 6.0 0.00 0.00 0.00 86 1010.5
20260831124437 57 243 2.0 7.0 0.00 0.00 0.00 86 1010.5
20260831124337 57 236 2.0 7.0 0.00 0.00 0.00 86 1010.5
20260831124324 57 248 1.0 6.0 0.00 0.00 0.00 86 1010.5
20260831124134 57 239 1.0 4.0 0.00 0.00 0.00 86 1010.5
20260831124031 57 236 1.0 3.0 0.00 0.00 0.00 86 1010.5
20260831123933 57 238 1.0 4.0 0.00 0.00 0.00 86 1010.5
20260831123830 58 236 1.0 4.0 0.00 0.00 0.00 86 1010.4
20260831123712 58 236 1.0 4.0 0.00 0.00 0.00 86 1010.4
20260831123628 58 243 1.0 5.0 0.00 0.00 0.00 86 1010.4
20260831123526 58 231 1.0 5.0 0.00 0.00 0.00 86 1010.4
20260831123420 58 239 2.0 5.0 0.00 0.00 0.00 86 1010.4
20260831123320 58 233 2.0 7.0 0.00 0.00 0.00 86 1010.3
20260831123206 58 233 2.0 7.0 0.00 0.00 0.00 86 1010.3
20260831123121 58 233 2.0 7.0 0.00 0.00 0.00 86 1010.3
20260831123020 58 231 2.0 7.0 0.00 0.00 0.00 86 1010.4
20260831122914 58 221 2.0 7.0 0.00 0.00 0.00 86 1010.4
20260831122815 58 204 2.0 7.0 0.00 0.00 0.00 86 1010.4
20260831122715 58 248 2.0 7.0 0.00 0.00 0.00 86 1010.4
20260831122700 58 248 2.0 7.0 0.00 0.00 0.00 86 1010.4
20260831122615 58 263 2.0 7.0 0.00 0.00 0.00 86 1010.4
20260831122514 58 243 2.0 7.0 0.00 0.00 0.00 86 1010.4
20260831122408 58 224 2.0 7.0 0.00 0.00 0.00 86 1010.4
20260831122308 58 240 2.0 6.0 0.00 0.00 0.00 86 1010.4
20260831122208 58 243 2.0 8.0 0.00 0.00 0.00 86 1010.4
20260831122156 58 231 2.0 8.0 0.00 0.00 0.00 86 1010.4
20260831122108 58 232 2.0 8.0 0.00 0.00 0.00 85 1010.4
20260831122008 58 233 2.0 8.0 0.00 0.00 0.00 86 1010.4
20260831121902 58 239 2.0 8.0 0.00 0.00 0.00 85 1010.4
20260831121803 58 248 2.0 8.0 0.00 0.00 0.00 85 1010.3
20260831121703 58 242 2.0 8.0 0.00 0.00 0.00 85 1010.4
20260831121648 58 239 2.0 8.0 0.00 0.00 0.00 85 1010.4
20260831121603 58 257 2.0 8.0 0.00 0.00 0.00 85 1010.4
20260831121503 58 236 2.0 8.0 0.00 0.00 0.00 85 1010.4
20260831121358 58 205 2.0 8.0 0.00 0.00 0.00 85 1010.4
20260831121257 58 239 2.0 8.0 0.00 0.00 0.00 85 1010.4
20260831121142 58 236 2.0 5.0 0.00 0.00 0.00 85 1010.4
20260831121056 58 206 2.0 7.0 0.00 0.00 0.00 85 1010.4
20260831120956 58 239 2.0 9.0 0.00 0.00 0.00 85 1010.4
20260831120854 58 239 3.0 9.0 0.00 0.00 0.00 85 1010.4
20260831120755 58 219 3.0 9.0 0.00 0.00 0.00 85 1010.4
20260831120654 58 252 3.0 9.0 0.00 0.00 0.00 85 1010.4
20260831120637 58 268 3.0 9.0 0.00 0.00 0.00 85 1010.4
20260831120612 58 231 3.0 10.0 0.00 0.00 0.00 85 1010.4
20260831120552 58 224 3.0 9.0 0.00 0.00 0.00 85 1010.4
20260831120459 58 238 3.0 10.0 0.00 0.00 0.00 85 1010.4
20260831120346 58 233 4.0 10.0 0.00 0.00 0.00 85 1010.4
20260831120245 58 245 4.0 10.0 0.00 0.00 0.00 85 1010.4
20260831120236 58 255 3.0 10.0 0.00 0.00 0.00 85 1010.4
20260831120044 58 248 3.0 10.0 0.00 0.00 0.00 85 1010.3
20260831115944 58 250 3.0 10.0 0.00 0.00 0.00 85 1010.4
20260831115838 58 242 3.0 10.0 0.00 0.00 0.00 85 1010.4
20260831115738 58 242 3.0 10.0 0.00 0.00 0.00 85 1010.4
20260831115639 58 231 3.0 10.0 0.00 0.00 0.00 85 1010.4
20260831115623 58 226 3.0 10.0 0.00 0.00 0.00 85 1010.4
20260831115604 58 229 3.0 8.0 0.00 0.00 0.00 85 1010.3
20260831115539 58 218 3.0 10.0 0.00 0.00 0.00 85 1010.4
20260831115449 58 203 3.0 8.0 0.00 0.00 0.00 85 1010.4
20260831115334 58 245 3.0 8.0 0.00 0.00 0.00 85 1010.4
20260831115233 58 204 3.0 8.0 0.00 0.00 0.00 85 1010.3
20260831115224 58 229 3.0 8.0 0.00 0.00 0.00 85 1010.3
20260831115032 58 271 3.0 8.0 0.00 0.00 0.00 84 1010.3
20260831114932 58 229 3.0 8.0 0.00 0.00 0.00 85 1010.3
20260831114827 58 250 3.0 8.0 0.00 0.00 0.00 85 1010.3
20260831114726 58 238 3.0 8.0 0.00 0.00 0.00 84 1010.3
20260831114627 58 238 3.0 8.0 0.00 0.00 0.00 84 1010.3
20260831114615 58 235 3.0 8.0 0.00 0.00 0.00 84 1010.3
20260831114526 58 235 3.0 8.0 0.00 0.00 0.00 85 1010.3
20260831114426 58 262 3.0 8.0 0.00 0.00 0.00 84 1010.3
20260831114322 58 224 2.0 8.0 0.00 0.00 0.00 84 1010.3
20260831114220 58 236 2.0 8.0 0.00 0.00 0.00 85 1010.3
20260831114120 58 235 2.0 5.0 0.00 0.00 0.00 84 1010.3
20260831114106 58 236 2.0 5.0 0.00 0.00 0.00 84 1010.3
20260831114021 58 203 2.0 5.0 0.00 0.00 0.00 85 1010.3
20260831113920 58 239 2.0 5.0 0.00 0.00 0.00 85 1010.3
20260831113815 58 222 2.0 5.0 0.00 0.00 0.00 85 1010.3
20260831113714 58 219 2.0 5.0 0.00 0.00 0.00 85 1010.3
20260831113614 58 207 2.0 5.0 0.00 0.00 0.00 85 1010.3
20260831113600 58 228 2.0 5.0 0.00 0.00 0.00 85 1010.3
20260831113514 58 238 2.0 5.0 0.00 0.00 0.00 85 1010.3
20260831113413 58 236 2.0 5.0 0.00 0.00 0.00 85 1010.3
20260831113308 58 250 2.0 5.0 0.00 0.00 0.00 85 1010.2
20260831113209 58 238 1.0 5.0 0.00 0.00 0.00 85 1010.3
20260831113108 58 224 1.0 3.0 0.00 0.00 0.00 84 1010.3
20260831113054 58 146 1.0 3.0 0.00 0.00 0.00 84 1010.3
20260831113008 58 200 1.0 3.0 0.00 0.00 0.00 84 1010.3
20260831112909 58 155 1.0 3.0 0.00 0.00 0.00 84 1010.3
20260831112805 58 155 1.0 3.0 0.00 0.00 0.00 84 1010.2
20260831112702 58 149 1.0 3.0 0.00 0.00 0.00 84 1010.2
20260831112604 58 232 1.0 3.0 0.00 0.00 0.00 84 1010.2
20260831112549 58 243 1.0 3.0 0.00 0.00 0.00 84 1010.2
20260831112503 58 195 1.0 3.0 0.00 0.00 0.00 84 1010.3
20260831112402 58 226 1.0 3.0 0.00 0.00 0.00 84 1010.2
20260831112307 58 141 1.0 3.0 0.00 0.00 0.00 84 1010.2
20260831112301 58 141 1.0 3.0 0.00 0.00 0.00 84 1010.2
20260831112200 58 141 1.0 3.0 0.00 0.00 0.00 84 1010.2
20260831112148 58 141 1.0 3.0 0.00 0.00 0.00 84 1010.2
20260831111958 58 165 1.0 3.0 0.00 0.00 0.00 84 1010.2
20260831111856 58 146 1.0 3.0 0.00 0.00 0.00 84 1010.2
20260831111752 58 218 1.0 3.0 0.00 0.00 0.00 84 1010.2
20260831111650 58 218 1.0 3.0 0.00 0.00 0.00 83 1010.2
20260831111555 58 218 1.0 3.0 0.00 0.00 0.00 83 1010.1
20260831111549 58 219 1.0 3.0 0.00 0.00 0.00 83 1010.1
20260831111451 58 219 1.0 3.0 0.00 0.00 0.00 83 1010.2
20260831111350 58 219 1.0 3.0 0.00 0.00 0.00 83 1010.2
20260831111244 58 236 1.0 3.0 0.00 0.00 0.00 83 1010.2
20260831111144 58 236 1.0 3.0 0.00 0.00 0.00 83 1010.2
20260831111045 58 242 1.0 3.0 0.00 0.00 0.00 83 1010.2
20260831111030 58 241 1.0 3.0 0.00 0.00 0.00 83 1010.2
20260831110944 58 222 1.0 3.0 0.00 0.00 0.00 83 1010.2
20260831110845 58 219 1.0 3.0 0.00 0.00 0.00 83 1010.2
20260831110740 59 203 1.0 3.0 0.00 0.00 0.00 83 1010.2
20260831110640 59 224 1.0 3.0 0.00 0.00 0.00 83 1010.2
20260831110524 59 224 1.0 3.0 0.00 0.00 0.00 83 1010.2
20260831110440 59 224 1.0 3.0 0.00 0.00 0.00 83 1010.2
20260831110338 59 224 1.0 3.0 0.00 0.00 0.00 82 1010.2
20260831110233 59 219 1.0 3.0 0.00 0.00 0.00 82 1010.2
20260831110132 59 219 1.0 3.0 0.00 0.00 0.00 82 1010.2
20260831110032 59 248 1.0 3.0 0.00 0.00 0.00 82 1010.2
20260831110019 59 249 1.0 3.0 0.00 0.00 0.00 82 1010.2
20260831105933 59 214 1.0 3.0 0.00 0.00 0.00 82 1010.2
20260831105833 59 239 1.0 3.0 0.00 0.00 0.00 82 1010.2
20260831105732 59 236 2.0 5.0 0.00 0.00 0.00 82 1010.2
20260831105630 59 210 2.0 5.0 0.00 0.00 0.00 82 1010.2
20260831105528 59 167 2.0 5.0 0.00 0.00 0.00 82 1010.2
20260831105512 59 230 2.0 5.0 0.00 0.00 0.00 82 1010.2
20260831105429 59 231 2.0 5.0 0.00 0.00 0.00 82 1010.2
20260831105326 59 232 2.0 5.0 0.00 0.00 0.00 82 1010.2
20260831105224 59 218 2.0 5.0 0.00 0.00 0.00 82 1010.3
20260831105125 59 217 2.0 5.0 0.00 0.00 0.00 82 1010.2
20260831105025 59 232 2.0 5.0 0.00 0.00 0.00 82 1010.3
20260831105008 59 225 2.0 5.0 0.00 0.00 0.00 82 1010.3
20260831104922 59 225 2.0 5.0 0.00 0.00 0.00 82 1010.3
20260831104819 59 239 2.0 5.0 0.00 0.00 0.00 82 1010.2
20260831104715 59 195 2.0 5.0 0.00 0.00 0.00 82 1010.2
20260831104614 59 228 1.0 4.0 0.00 0.00 0.00 81 1010.2
20260831104515 59 228 1.0 4.0 0.00 0.00 0.00 81 1010.2
20260831104500 59 228 1.0 4.0 0.00 0.00 0.00 81 1010.2
20260831104415 59 227 1.0 4.0 0.00 0.00 0.00 81 1010.2
20260831104314 59 215 1.0 4.0 0.00 0.00 0.00 81 1010.3
20260831104210 59 203 1.0 3.0 0.00 0.00 0.00 81 1010.3
20260831104109 59 219 1.0 3.0 0.00 0.00 0.00 81 1010.2
20260831104008 59 201 1.0 3.0 0.00 0.00 0.00 81 1010.2
20260831103954 59 226 1.0 3.0 0.00 0.00 0.00 81 1010.2
20260831103908 59 226 1.0 3.0 0.00 0.00 0.00 81 1010.2
20260831103809 59 217 1.0 3.0 0.00 0.00 0.00 81 1010.3
20260831103704 59 212 1.0 3.0 0.00 0.00 0.00 81 1010.3
20260831103604 59 205 1.0 3.0 0.00 0.00 0.00 81 1010.3
20260831103502 59 205 1.0 3.0 0.00 0.00 0.00 81 1010.2
20260831103447 59 205 1.0 3.0 0.00 0.00 0.00 81 1010.2
20260831103403 59 205 1.0 5.0 0.00 0.00 0.00 81 1010.2
20260831103302 59 207 1.0 5.0 0.00 0.00 0.00 81 1010.2
20260831103159 59 230 1.0 5.0 0.00 0.00 0.00 81 1010.2
20260831103057 59 231 1.0 5.0 0.00 0.00 0.00 81 1010.2
20260831102956 60 231 1.0 5.0 0.00 0.00 0.00 80 1010.2
20260831102942 60 139 1.0 5.0 0.00 0.00 0.00 80 1010.2
20260831102856 60 217 1.0 5.0 0.00 0.00 0.00 80 1010.2
20260831102756 60 217 1.0 5.0 0.00 0.00 0.00 80 1010.2
20260831102659 60 222 1.0 5.0 0.00 0.00 0.00 80 1010.2
20260831102652 60 222 1.0 5.0 0.00 0.00 0.00 80 1010.1
20260831102552 60 222 1.0 5.0 0.00 0.00 0.00 80 1010.1
20260831102542 60 222 1.0 5.0 0.00 0.00 0.00 80 1010.2
20260831102353 60 222 1.0 6.0 0.00 0.00 0.00 80 1010.2
20260831102250 60 132 2.0 6.0 0.00 0.00 0.00 80 1010.2
20260831102146 60 238 2.0 6.0 0.00 0.00 0.00 80 1010.2
20260831102054 60 173 1.0 6.0 0.00 0.00 0.00 80 1010.2
20260831101946 60 185 1.0 6.0 0.00 0.00 0.00 80 1010.2
20260831101930 60 136 1.0 6.0 0.00 0.00 0.00 80 1010.2
20260831101847 60 231 1.0 6.0 0.00 0.00 0.00 79 1010.2
20260831101744 60 231 2.0 6.0 0.00 0.00 0.00 79 1010.2
20260831101640 60 231 1.0 6.0 0.00 0.00 0.00 79 1010.1
20260831101538 60 160 2.0 6.0 0.00 0.00 0.00 79 1010.2
20260831101438 60 160 2.0 6.0 0.00 0.00 0.00 79 1010.1
20260831101424 60 162 2.0 6.0 0.00 0.00 0.00 79 1010.1
20260831101339 60 195 2.0 5.0 0.00 0.00 0.00 79 1010.1
20260831101238 60 141 2.0 6.0 0.00 0.00 0.00 79 1010.1
20260831101134 60 188 2.0 6.0 0.00 0.00 0.00 79 1010.1
20260831101033 60 188 2.0 6.0 0.00 0.00 0.00 79 1010.1
20260831100919 60 236 2.0 6.0 0.00 0.00 0.00 79 1010.1
20260831100832 60 212 2.0 6.0 0.00 0.00 0.00 79 1010.1
20260831100731 60 145 2.0 6.0 0.00 0.00 0.00 79 1010.1
20260831100632 60 236 2.0 6.0 0.00 0.00 0.00 79 1010.1
20260831100530 60 224 2.0 6.0 0.00 0.00 0.00 79 1010.1
20260831100412 60 228 2.0 6.0 0.00 0.00 0.00 79 1010.0
20260831100329 60 241 2.0 6.0 0.00 0.00 0.00 79 1010.0
20260831100226 60 177 2.0 6.0 0.00 0.00 0.00 79 1010.0
20260831100120 60 222 2.0 5.0 0.00 0.00 0.00 78 1010.1
20260831100020 60 225 2.0 5.0 0.00 0.00 0.00 78 1010.1
20260831095920 60 217 2.0 5.0 0.00 0.00 0.00 78 1010.1
20260831095906 60 240 2.0 5.0 0.00 0.00 0.00 78 1010.0
20260831095821 60 203 2.0 5.0 0.00 0.00 0.00 78 1010.0
20260831095720 60 233 2.0 5.0 0.00 0.00 0.00 78 1010.0
20260831095614 60 172 2.0 5.0 0.00 0.00 0.00 78 1010.0
20260831095514 60 236 2.0 5.0 0.00 0.00 0.00 78 1010.0
20260831095414 60 214 2.0 5.0 0.00 0.00 0.00 78 1010.0
20260831095400 60 217 2.0 5.0 0.00 0.00 0.00 78 1010.0
20260831095314 60 230 2.0 5.0 0.00 0.00 0.00 78 1010.0
20260831095214 60 218 2.0 6.0 0.00 0.00 0.00 78 1010.0
20260831095112 60 233 2.0 6.0 0.00 0.00 0.00 78 1010.0
20260831095012 60 217 2.0 10.0 0.00 0.00 0.00 78 1010.0
20260831094913 61 223 3.0 10.0 0.00 0.00 0.00 78 1010.0
20260831094854 61 184 3.0 10.0 0.00 0.00 0.00 78 1010.0
20260831094811 61 204 3.0 10.0 0.00 0.00 0.00 78 1010.0
20260831094708 61 218 3.0 10.0 0.00 0.00 0.00 78 1010.0
20260831094605 61 218 3.0 10.0 0.00 0.00 0.00 78 1010.0
20260831094503 61 239 3.0 10.0 0.00 0.00 0.00 77 1010.0
20260831094403 61 225 3.0 10.0 0.00 0.00 0.00 78 1010.0
20260831094348 61 225 3.0 10.0 0.00 0.00 0.00 78 1010.0
20260831094302 61 225 3.0 10.0 0.00 0.00 0.00 78 1009.9
20260831094202 61 204 3.0 10.0 0.00 0.00 0.00 78 1010.0
20260831094058 61 217 3.0 10.0 0.00 0.00 0.00 78 1010.0
20260831093959 61 233 3.0 7.0 0.00 0.00 0.00 77 1009.9
20260831093859 61 240 2.0 7.0 0.00 0.00 0.00 77 1009.9
20260831093842 61 203 2.0 7.0 0.00 0.00 0.00 77 1009.9
20260831093758 61 232 2.0 7.0 0.00 0.00 0.00 77 1010.0
20260831093656 61 233 2.0 7.0 0.00 0.00 0.00 77 1010.0
20260831093600 61 159 2.0 4.0 0.00 0.00 0.00 77 1010.0
20260831093553 61 243 2.0 7.0 0.00 0.00 0.00 77 1010.0
20260831093453 61 239 2.0 7.0 0.00 0.00 0.00 77 1010.0
20260831093442 61 169 2.0 7.0 0.00 0.00 0.00 77 1010.0
20260831093253 61 228 2.0 4.0 0.00 0.00 0.00 77 1010.0
20260831093149 61 239 2.0 4.0 0.00 0.00 0.00 77 1010.0
20260831093045 61 228 2.0 4.0 0.00 0.00 0.00 76 1010.0
20260831092946 61 243 2.0 4.0 0.00 0.00 0.00 76 1010.0
20260831092830 61 240 1.0 4.0 0.00 0.00 0.00 76 1010.0
20260831092745 61 240 1.0 4.0 0.00 0.00 0.00 76 1010.0
20260831092644 61 217 1.0 4.0 0.00 0.00 0.00 76 1010.0
20260831092540 61 233 1.0 4.0 0.00 0.00 0.00 76 1010.0
20260831092438 61 233 1.0 4.0 0.00 0.00 0.00 76 1010.0
20260831092339 61 233 1.0 3.0 0.00 0.00 0.00 75 1010.1
20260831092324 61 226 1.0 3.0 0.00 0.00 0.00 75 1010.0
20260831092238 61 239 1.0 3.0 0.00 0.00 0.00 75 1010.0
20260831092137 61 234 1.0 3.0 0.00 0.00 0.00 75 1010.1
20260831092039 61 235 1.0 3.0 0.00 0.00 0.00 75 1010.0
20260831091937 61 179 1.0 3.0 0.00 0.00 0.00 74 1010.0
20260831091836 61 179 1.0 3.0 0.00 0.00 0.00 74 1010.0
20260831091818 61 217 1.0 3.0 0.00 0.00 0.00 74 1010.0
20260831091734 61 217 1.0 3.0 0.00 0.00 0.00 74 1010.0
20260831091632 61 217 1.0 3.0 0.00 0.00 0.00 74 1010.0
20260831091528 62 217 1.0 3.0 0.00 0.00 0.00 74 1010.0
20260831091426 62 191 1.0 3.0 0.00 0.00 0.00 74 1010.0
20260831091327 62 228 1.0 3.0 0.00 0.00 0.00 73 1010.0
20260831091313 62 211 1.0 3.0 0.00 0.00 0.00 73 1010.0
20260831091226 62 155 1.0 3.0 0.00 0.00 0.00 73 1010.0
20260831091126 62 155 1.0 3.0 0.00 0.00 0.00 73 1010.0
20260831091024 62 155 1.0 3.0 0.00 0.00 0.00 73 1010.0
20260831090924 62 194 1.0 3.0 0.00 0.00 0.00 73 1010.0
20260831090823 62 204 1.0 4.0 0.00 0.00 0.00 73 1010.0
20260831090806 62 214 2.0 4.0 0.00 0.00 0.00 73 1010.0
20260831090723 62 231 2.0 4.0 0.00 0.00 0.00 73 1010.0
20260831090622 62 230 2.0 4.0 0.00 0.00 0.00 73 1010.0
20260831090518 62 193 1.0 4.0 0.00 0.00 0.00 73 1010.0
20260831090418 62 235 1.0 4.0 0.00 0.00 0.00 73 1009.9
20260831090317 62 231 1.0 4.0 0.00 0.00 0.00 73 1010.0
20260831090300 62 232 2.0 4.0 0.00 0.00 0.00 73 1009.9
20260831090216 62 232 2.0 4.0 0.00 0.00 0.00 73 1009.9
20260831090114 62 221 2.0 4.0 0.00 0.00 0.00 73 1009.9
20260831090008 62 158 2.0 4.0 0.00 0.00 0.00 72 1009.9
20260831085908 62 231 1.0 4.0 0.00 0.00 0.00 72 1009.9
20260831085808 62 243 1.0 4.0 0.00 0.00 0.00 72 1009.9
20260831085754 62 250 1.0 4.0 0.00 0.00 0.00 72 1009.9
20260831085709 62 216 1.0 4.0 0.00 0.00 0.00 72 1009.9
20260831085608 62 238 1.0 4.0 0.00 0.00 0.00 72 1009.9
20260831085503 62 238 1.0 4.0 0.00 0.00 0.00 72 1009.9
20260831085402 62 216 2.0 4.0 0.00 0.00 0.00 72 1009.9
20260831085306 62 248 2.0 4.0 0.00 0.00 0.00 72 1009.9
20260831085248 62 239 2.0 4.0 0.00 0.00 0.00 72 1009.9
20260831085203 62 155 2.0 4.0 0.00 0.00 0.00 72 1009.9
20260831085102 62 235 2.0 4.0 0.00 0.00 0.00 72 1009.9
20260831085002 62 188 2.0 4.0 0.00 0.00 0.00 71 1010.0
20260831084901 62 195 2.0 4.0 0.00 0.00 0.00 71 1010.0
20260831084801 62 194 2.0 6.0 0.00 0.00 0.00 71 1010.0
20260831084742 63 194 2.0 6.0 0.00 0.00 0.00 71 1010.0
20260831084659 63 193 2.0 6.0 0.00 0.00 0.00 71 1010.0
20260831084558 63 201 2.0 6.0 0.00 0.00 0.00 71 1010.0
20260831084452 63 231 2.0 6.0 0.00 0.00 0.00 71 1010.0
20260831084350 63 223 2.0 6.0 0.00 0.00 0.00 71 1010.0
20260831084250 63 214 2.0 6.0 0.00 0.00 0.00 71 1010.0
20260831084236 63 240 2.0 6.0 0.00 0.00 0.00 71 1010.0
20260831084151 63 190 2.0 6.0 0.00 0.00 0.00 71 1010.0
20260831084050 63 200 2.0 6.0 0.00 0.00 0.00 71 1010.0
20260831083948 63 224 2.0 6.0 0.00 0.00 0.00 71 1010.0
20260831083849 63 219 2.0 5.0 0.00 0.00 0.00 70 1010.0
20260831083749 63 161 2.0 5.0 0.00 0.00 0.00 70 1010.1
20260831083730 63 149 2.0 5.0 0.00 0.00 0.00 70 1010.1
20260831083646 63 233 2.0 7.0 0.00 0.00 0.00 70 1010.1
20260831083544 63 233 2.0 7.0 0.00 0.00 0.00 70 1010.0
20260831083441 63 253 2.0 7.0 0.00 0.00 0.00 70 1010.1
20260831083338 63 190 2.0 7.0 0.00 0.00 0.00 70 1010.1
20260831083238 63 215 3.0 7.0 0.00 0.00 0.00 70 1010.1
20260831083224 63 216 3.0 7.0 0.00 0.00 0.00 70 1010.1
20260831083139 63 207 2.0 7.0 0.00 0.00 0.00 70 1010.1
20260831083038 63 158 2.0 7.0 0.00 0.00 0.00 70 1010.1
20260831082942 63 228 2.0 7.0 0.00 0.00 0.00 69 1010.1
20260831082933 63 158 2.0 7.0 0.00 0.00 0.00 70 1010.1
20260831082833 63 214 2.0 7.0 0.00 0.00 0.00 70 1010.1
20260831082824 63 241 2.0 7.0 0.00 0.00 0.00 70 1010.1
20260831082633 63 232 2.0 6.0 0.00 0.00 0.00 69 1010.1
20260831082532 64 186 3.0 7.0 0.00 0.00 0.00 69 1010.1
20260831082430 64 208 3.0 8.0 0.00 0.00 0.00 69 1010.1
20260831082330 64 217 3.0 8.0 0.00 0.00 0.00 69 1010.0
20260831082231 64 239 3.0 8.0 0.00 0.00 0.00 69 1010.0
20260831082212 64 212 3.0 8.0 0.00 0.00 0.00 69 1010.0
20260831082128 64 141 3.0 8.0 0.00 0.00 0.00 69 1010.0
20260831082026 64 204 3.0 8.0 0.00 0.00 0.00 69 1010.1
20260831081922 64 248 3.0 8.0 0.00 0.00 0.00 69 1010.1
20260831081820 64 145 3.0 8.0 0.00 0.00 0.00 69 1010.1
20260831081721 64 253 3.0 8.0 0.00 0.00 0.00 69 1010.1
20260831081710 64 264 2.0 8.0 0.00 0.00 0.00 69 1010.1
20260831081620 64 208 2.0 8.0 0.00 0.00 0.00 69 1010.1
20260831081520 64 226 2.0 8.0 0.00 0.00 0.00 69 1010.1
20260831081415 64 230 2.0 6.0 0.00 0.00 0.00 69 1010.1
20260831081314 64 218 2.0 6.0 0.00 0.00 0.00 69 1010.1
20260831081209 64 191 2.0 6.0 0.00 0.00 0.00 68 1010.1
20260831081114 64 208 2.0 6.0 0.00 0.00 0.00 68 1010.1
20260831081013 64 232 2.0 6.0 0.00 0.00 0.00 69 1010.1
20260831080908 64 210 2.0 6.0 0.00 0.00 0.00 68 1010.1
20260831080809 64 215 2.0 6.0 0.00 0.00 0.00 69 1010.1
20260831080709 64 204 2.0 6.0 0.00 0.00 0.00 69 1010.1
20260831080608 64 195 2.0 6.0 0.00 0.00 0.00 69 1010.1
20260831080508 64 230 2.0 5.0 0.00 0.00 0.00 69 1010.1
20260831080407 64 150 2.0 5.0 0.00 0.00 0.00 69 1010.1
20260831080306 64 222 2.0 5.0 0.00 0.00 0.00 69 1010.1
20260831080205 64 167 2.0 7.0 0.00 0.00 0.00 69 1010.1
20260831080105 64 212 2.0 7.0 0.00 0.00 0.00 69 1010.1
20260831080003 64 165 2.0 7.0 0.00 0.00 0.00 69 1010.1
20260831075856 64 228 2.0 7.0 0.00 0.00 0.00 69 1010.1
20260831075756 64 226 3.0 7.0 0.00 0.00 0.00 69 1010.1
20260831075710 64 240 3.0 7.0 0.00 0.00 0.00 69 1010.1
20260831075656 64 240 3.0 7.0 0.00 0.00 0.00 69 1010.1
20260831075556 64 218 3.0 8.0 0.00 0.00 0.00 69 1010.1
20260831075456 64 225 3.0 8.0 0.00 0.00 0.00 69 1010.1
20260831075351 64 203 3.0 8.0 0.00 0.00 0.00 69 1010.1
20260831075250 64 239 2.0 8.0 0.00 0.00 0.00 69 1010.1
20260831075208 64 212 2.0 8.0 0.00 0.00 0.00 69 1010.1
20260831075150 64 158 2.0 8.0 0.00 0.00 0.00 69 1010.1
20260831075051 64 243 2.0 8.0 0.00 0.00 0.00 69 1010.1
20260831074950 64 235 2.0 8.0 0.00 0.00 0.00 69 1010.1
20260831074847 64 204 2.0 8.0 0.00 0.00 0.00 69 1010.1
20260831074744 64 215 2.0 8.0 0.00 0.00 0.00 69 1010.1
20260831074707 64 210 2.0 8.0 0.00 0.00 0.00 69 1010.1
20260831074644 64 210 2.0 8.0 0.00 0.00 0.00 69 1010.1
20260831074544 64 236 1.0 6.0 0.00 0.00 0.00 69 1010.1
20260831074444 64 114 1.0 4.0 0.00 0.00 0.00 70 1010.2
20260831074340 64 114 1.0 4.0 0.00 0.00 0.00 69 1010.1
20260831074238 64 114 2.0 4.0 0.00 0.00 0.00 69 1010.1
20260831074206 64 146 2.0 4.0 0.00 0.00 0.00 69 1010.1
20260831074139 64 148 2.0 4.0 0.00 0.00 0.00 69 1010.1
20260831074038 64 214 2.0 4.0 0.00 0.00 0.00 70 1010.1
20260831073938 64 222 1.0 4.0 0.00 0.00 0.00 70 1010.1
20260831073838 64 203 1.0 4.0 0.00 0.00 0.00 70 1010.1
20260831073736 64 191 1.0 4.0 0.00 0.00 0.00 70 1010.1
20260831073706 64 208 1.0 4.0 0.00 0.00 0.00 70 1010.1
20260831073637 64 221 1.0 4.0 0.00 0.00 0.00 70 1010.1
20260831073535 64 219 1.0 4.0 0.00 0.00 0.00 70 1010.1
20260831073432 64 166 1.0 4.0 0.00 0.00 0.00 70 1010.1
20260831073327 64 217 1.0 4.0 0.00 0.00 0.00 70 1010.1
20260831073226 64 143 1.0 3.0 0.00 0.00 0.00 70 1010.0
20260831073205 64 205 1.0 3.0 0.00 0.00 0.00 70 1010.0
20260831073127 64 165 1.0 4.0 0.00 0.00 0.00 70 1010.0
20260831073026 64 191 1.0 4.0 0.00 0.00 0.00 70 1010.0
20260831072936 64 222 1.0 4.0 0.00 0.00 0.00 70 1010.1
20260831072926 64 226 1.0 4.0 0.00 0.00 0.00 70 1010.1
20260831072823 64 217 1.0 4.0 0.00 0.00 0.00 70 1010.0
20260831072815 64 222 1.0 4.0 0.00 0.00 0.00 70 1010.0
20260831072620 64 145 1.0 4.0 0.00 0.00 0.00 70 1010.1
20260831072521 64 158 1.0 4.0 0.00 0.00 0.00 70 1010.1
20260831072420 64 158 1.0 4.0 0.00 0.00 0.00 70 1010.0
20260831072316 64 210 1.0 4.0 0.00 0.00 0.00 70 1010.0
20260831072215 64 140 1.0 4.0 0.00 0.00 0.00 70 1010.0
20260831072205 64 131 1.0 4.0 0.00 0.00 0.00 70 1010.1
20260831072114 64 125 1.0 2.0 0.00 0.00 0.00 70 1010.1
20260831072014 64 232 1.0 2.0 0.00 0.00 0.00 70 1010.1
20260831071914 64 125 1.0 2.0 0.00 0.00 0.00 70 1010.1
20260831071808 64 119 1.0 2.0 0.00 0.00 0.00 70 1010.1
20260831071712 64 118 1.0 3.0 0.00 0.00 0.00 70 1010.1
20260831071706 64 119 1.0 3.0 0.00 0.00 0.00 70 1010.1
20260831071651 64 148 1.0 3.0 0.00 0.00 0.00 70 1010.0
20260831071609 64 119 1.0 3.0 0.00 0.00 0.00 70 1010.0
20260831071535 64 185 1.0 3.0 0.00 0.00 0.00 70 1010.0
20260831071409 64 200 1.0 3.0 0.00 0.00 0.00 70 1010.0
20260831071318 64 200 1.0 3.0 0.00 0.00 0.00 70 1010.1
20260831071203 64 148 1.0 3.0 0.00 0.00 0.00 70 1010.0
20260831071102 64 210 1.0 3.0 0.00 0.00 0.00 70 1010.0
20260831071003 64 146 1.0 3.0 0.00 0.00 0.00 70 1010.0
20260831070901 64 158 1.0 5.0 0.00 0.00 0.00 70 1010.0
20260831070801 64 239 1.0 5.0 0.00 0.00 0.00 70 1010.0
20260831070706 64 210 1.0 5.0 0.00 0.00 0.00 70 1009.9
20260831070701 64 210 1.0 5.0 0.00 0.00 0.00 70 1009.9
20260831070601 64 208 1.0 5.0 0.00 0.00 0.00 70 1009.9
20260831070501 64 212 1.0 5.0 0.00 0.00 0.00 70 1009.9
20260831070356 64 221 1.0 5.0 0.00 0.00 0.00 70 1010.0
20260831070255 64 195 1.0 5.0 0.00 0.00 0.00 70 1009.9
20260831070204 64 194 1.0 5.0 0.00 0.00 0.00 69 1009.9
20260831070154 64 193 1.0 5.0 0.00 0.00 0.00 69 1009.9
20260831070055 64 204 1.0 5.0 0.00 0.00 0.00 69 1010.0
20260831065952 64 232 0.0 5.0 0.00 0.00 0.00 70 1009.9
20260831065850 64 132 0.0 2.0 0.00 0.00 0.00 70 1009.9
20260831065746 64 123 0.0 2.0 0.00 0.00 0.00 70 1009.9
20260831065701 64 217 0.0 2.0 0.00 0.00 0.00 70 1009.8
20260831065644 64 221 0.0 2.0 0.00 0.00 0.00 69 1009.8
20260831065545 64 229 0.0 2.0 0.00 0.00 0.00 69 1009.9
20260831065445 64 229 0.0 2.0 0.00 0.00 0.00 69 1009.9
20260831065344 64 135 0.0 1.0 0.00 0.00 0.00 69 1009.9
20260831065242 64 136 0.0 1.0 0.00 0.00 0.00 69 1009.9
20260831065203 64 135 0.0 3.0 0.00 0.00 0.00 69 1009.9
20260831065141 65 136 0.0 3.0 0.00 0.00 0.00 69 1009.9
20260831065040 65 136 0.0 3.0 0.00 0.00 0.00 69 1009.9
20260831064938 65 131 1.0 3.0 0.00 0.00 0.00 69 1009.9
20260831064835 65 131 1.0 3.0 0.00 0.00 0.00 69 1009.9
20260831064737 65 131 1.0 3.0 0.00 0.00 0.00 69 1010.0
20260831064657 65 131 1.0 3.0 0.00 0.00 0.00 68 1009.9
20260831064635 65 131 1.0 3.0 0.00 0.00 0.00 69 1009.9
20260831064535 65 131 1.0 3.0 0.00 0.00 0.00 69 1009.9
20260831064433 65 229 1.0 3.0 0.00 0.00 0.00 68 1010.0
20260831064416 65 136 1.0 3.0 0.00 0.00 0.00 68 1009.9
20260831064330 65 135 1.0 3.0 0.00 0.00 0.00 68 1009.9
20260831064259 65 135 1.0 3.0 0.00 0.00 0.00 68 1009.9
20260831064128 65 135 1.0 3.0 0.00 0.00 0.00 68 1009.9
20260831064029 65 129 1.0 3.0 0.00 0.00 0.00 68 1009.9
20260831063925 65 217 1.0 3.0 0.00 0.00 0.00 68 1009.9
20260831063907 65 131 2.0 3.0 0.00 0.00 0.00 68 1009.9
20260831063824 65 131 1.0 3.0 0.00 0.00 0.00 68 1009.9
20260831063755 65 131 2.0 3.0 0.00 0.00 0.00 68 1009.9
20260831063623 65 131 2.0 3.0 0.00 0.00 0.00 68 1009.9
20260831063523 65 134 2.0 3.0 0.00 0.00 0.00 68 1009.9
20260831063420 65 135 1.0 3.0 0.00 0.00 0.00 68 1010.0
20260831063320 65 161 1.0 3.0 0.00 0.00 0.00 68 1010.0
20260831063216 65 142 1.0 3.0 0.00 0.00 0.00 68 1009.9
20260831063138 65 130 1.0 3.0 0.00 0.00 0.00 68 1009.9
20260831063116 65 142 1.0 3.0 0.00 0.00 0.00 67 1009.9
20260831063017 65 127 1.0 3.0 0.00 0.00 0.00 67 1009.9
20260831062914 65 127 1.0 3.0 0.00 0.00 0.00 67 1009.9
20260831062814 66 124 1.0 3.0 0.00 0.00 0.00 67 1009.9
20260831062707 66 134 1.0 3.0 0.00 0.00 0.00 67 1009.9
20260831062632 66 143 1.0 3.0 0.00 0.00 0.00 67 1009.9
20260831062607 66 134 1.0 3.0 0.00 0.00 0.00 67 1009.9
20260831062506 66 141 1.0 3.0 0.00 0.00 0.00 67 1009.9
20260831062407 66 140 1.0 3.0 0.00 0.00 0.00 67 1009.9
20260831062306 66 139 1.0 3.0 0.00 0.00 0.00 67 1009.9
20260831062206 66 124 1.0 3.0 0.00 0.00 0.00 67 1009.9
20260831062127 66 181 1.0 3.0 0.00 0.00 0.00 67 1009.9
20260831062105 66 210 1.0 5.0 0.00 0.00 0.00 67 1009.9
20260831062003 66 210 1.0 6.0 0.00 0.00 0.00 67 1009.8
20260831061903 66 228 1.0 6.0 0.00 0.00 0.00 66 1009.8
20260831061800 66 130 2.0 6.0 0.00 0.00 0.00 66 1009.9
20260831061654 66 129 2.0 7.0 0.00 0.00 0.00 66 1009.8
20260831061621 66 131 2.0 7.0 0.00 0.00 0.00 66 1009.8
20260831061555 66 221 2.0 7.0 0.00 0.00 0.00 66 1009.8
20260831061454 66 221 2.0 7.0 0.00 0.00 0.00 66 1009.8
20260831061356 66 223 2.0 7.0 0.00 0.00 0.00 66 1009.8
20260831061317 67 195 3.0 11.0 0.00 0.00 0.00 66 1009.7
20260831061254 66 228 2.0 7.0 0.00 0.00 0.00 66 1009.8
20260831061221 67 207 2.0 7.0 0.00 0.00 0.00 66 1009.8
20260831061209 67 204 2.0 7.0 0.00 0.00 0.00 66 1009.8
20260831061053 67 248 2.0 7.0 0.00 0.00 0.00 66 1009.8
20260831060953 67 226 3.0 7.0 0.00 0.00 0.00 66 1009.7
20260831060936 67 229 3.0 7.0 0.00 0.00 0.00 66 1009.8
20260831060748 67 216 3.0 11.0 0.00 0.00 0.00 66 1009.7
20260831060724 67 246 3.0 11.0 0.00 0.00 0.00 66 1009.7
20260831060546 67 200 3.0 11.0 0.00 0.00 0.00 66 1009.7
20260831060444 67 248 3.0 11.0 0.00 0.00 0.00 66 1009.7
20260831060343 67 250 4.0 11.0 0.00 0.00 0.00 65 1009.6
20260831060240 67 224 4.0 11.0 0.00 0.00 0.00 66 1009.7
20260831060135 67 212 4.0 11.0 0.00 0.00 0.00 65 1009.7
20260831060113 67 248 3.0 11.0 0.00 0.00 0.00 65 1009.6
20260831060035 67 212 3.0 11.0 0.00 0.00 0.00 65 1009.6
20260831055935 67 225 3.0 11.0 0.00 0.00 0.00 65 1009.7
20260831055834 67 214 3.0 8.0 0.00 0.00 0.00 65 1009.7
20260831055735 67 248 3.0 8.0 0.00 0.00 0.00 65 1009.7
20260831055632 67 230 3.0 8.0 0.00 0.00 0.00 65 1009.7
20260831055619 67 233 3.0 6.0 0.00 0.00 0.00 65 1009.7
20260831055529 67 224 3.0 6.0 0.00 0.00 0.00 65 1009.7
20260831055429 67 208 3.0 6.0 0.00 0.00 0.00 65 1009.7
20260831055328 67 224 3.0 6.0 0.00 0.00 0.00 65 1009.8
20260831055228 67 259 3.0 8.0 0.00 0.00 0.00 65 1009.7
20260831055129 67 231 3.0 8.0 0.00 0.00 0.00 65 1009.8
20260831055109 67 232 3.0 8.0 0.00 0.00 0.00 65 1009.7
20260831055026 67 207 3.0 8.0 0.00 0.00 0.00 65 1009.7
20260831054926 67 232 3.0 8.0 0.00 0.00 0.00 65 1009.7
20260831054825 67 231 3.0 9.0 0.00 0.00 0.00 65 1009.7
20260831054722 67 233 3.0 9.0 0.00 0.00 0.00 64 1009.7
20260831054617 68 253 3.0 10.0 0.00 0.00 0.00 65 1009.7
20260831054606 68 246 4.0 10.0 0.00 0.00 0.00 65 1009.7
20260831054517 68 241 4.0 10.0 0.00 0.00 0.00 64 1009.7
20260831054417 68 240 4.0 10.0 0.00 0.00 0.00 64 1009.7
20260831054317 68 239 4.0 10.0 0.00 0.00 0.00 64 1009.7
20260831054216 68 229 4.0 10.0 0.00 0.00 0.00 64 1009.7
20260831054113 68 243 4.0 10.0 0.00 0.00 0.00 64 1009.7
20260831054107 68 246 4.0 10.0 0.00 0.00 0.00 64 1009.7
20260831054013 68 238 4.0 10.0 0.00 0.00 0.00 64 1009.7
20260831053912 68 236 4.0 10.0 0.00 0.00 0.00 64 1009.7
20260831053813 68 223 4.0 10.0 0.00 0.00 0.00 64 1009.8
20260831053710 68 226 4.0 7.0 0.00 0.00 0.00 64 1009.7
20260831053607 68 245 4.0 7.0 0.00 0.00 0.00 64 1009.7
20260831053504 68 217 4.0 7.0 0.00 0.00 0.00 64 1009.8
20260831053404 68 260 3.0 7.0 0.00 0.00 0.00 64 1009.7
20260831053305 68 236 3.0 7.0 0.00 0.00 0.00 63 1009.8
20260831053204 68 266 3.0 7.0 0.00 0.00 0.00 63 1009.7
20260831053106 68 229 3.0 7.0 0.00 0.00 0.00 63 1009.7
20260831053058 68 229 3.0 7.0 0.00 0.00 0.00 63 1009.7
20260831052959 68 233 3.0 7.0 0.00 0.00 0.00 63 1009.7
20260831052858 69 221 3.0 7.0 0.00 0.00 0.00 63 1009.7
20260831052800 69 170 3.0 8.0 0.00 0.00 0.00 63 1009.8
20260831052658 69 243 4.0 8.0 0.00 0.00 0.00 63 1009.7
20260831052617 69 228 4.0 9.0 0.00 0.00 0.00 63 1009.7
20260831052559 69 221 4.0 9.0 0.00 0.00 0.00 63 1009.7
20260831052459 69 242 4.0 9.0 0.00 0.00 0.00 63 1009.7
20260831052357 69 232 4.0 9.0 0.00 0.00 0.00 62 1009.8
20260831052253 69 250 4.0 9.0 0.00 0.00 0.00 62 1009.8
20260831052151 69 207 5.0 12.0 0.00 0.00 0.00 62 1009.8
20260831052104 69 226 5.0 12.0 0.00 0.00 0.00 62 1009.8
20260831052047 69 305 5.0 12.0 0.00 0.00 0.00 62 1009.8
20260831051947 69 233 5.0 12.0 0.00 0.00 0.00 62 1009.8
20260831051847 69 233 4.0 12.0 0.00 0.00 0.00 62 1009.8
20260831051746 69 235 4.0 12.0 0.00 0.00 0.00 62 1009.7
20260831051645 69 242 4.0 12.0 0.00 0.00 0.00 62 1009.8
20260831051604 69 231 4.0 12.0 0.00 0.00 0.00 62 1009.8
20260831051544 69 200 4.0 12.0 0.00 0.00 0.00 62 1009.8
20260831051444 69 211 4.0 12.0 0.00 0.00 0.00 62 1009.8
20260831051345 69 238 4.0 12.0 0.00 0.00 0.00 61 1009.8
20260831051243 69 257 4.0 12.0 0.00 0.00 0.00 61 1009.8
20260831051140 69 255 4.0 10.0 0.00 0.00 0.00 61 1009.8
20260831051104 69 232 3.0 10.0 0.00 0.00 0.00 61 1009.8
20260831051035 69 248 3.0 10.0 0.00 0.00 0.00 61 1009.8
20260831050934 69 232 4.0 10.0 0.00 0.00 0.00 61 1009.8
20260831050835 69 246 4.0 10.0 0.00 0.00 0.00 61 1009.8
20260831050734 69 245 5.0 11.0 0.00 0.00 0.00 61 1009.7
20260831050634 69 234 5.0 11.0 0.00 0.00 0.00 61 1009.8
20260831050604 69 262 4.0 11.0 0.00 0.00 0.00 61 1009.8
20260831050533 69 242 4.0 11.0 0.00 0.00 0.00 61 1009.8
20260831050433 70 276 5.0 11.0 0.00 0.00 0.00 61 1009.8
20260831050341 70 250 5.0 11.0 0.00 0.00 0.00 61 1009.8
20260831050331 70 169 5.0 11.0 0.00 0.00 0.00 61 1009.8
20260831050234 70 214 5.0 11.0 0.00 0.00 0.00 61 1009.8
20260831050225 70 259 5.0 11.0 0.00 0.00 0.00 61 1009.8
20260831050047 70 240 4.0 10.0 0.00 0.00 0.00 60 1009.8
20260831050025 70 236 5.0 11.0 0.00 0.00 0.00 61 1009.8
20260831045953 70 188 5.0 11.0 0.00 0.00 0.00 60 1009.7
20260831045854 70 235 4.0 10.0 0.00 0.00 0.00 60 1009.8
20260831045723 70 233 4.0 10.0 0.00 0.00 0.00 60 1009.7
20260831045715 70 231 4.0 10.0 0.00 0.00 0.00 60 1009.7
20260831045516 70 224 4.0 12.0 0.00 0.00 0.00 60 1009.8
20260831045416 70 250 4.0 12.0 0.00 0.00 0.00 60 1009.7
20260831045316 70 250 4.0 12.0 0.00 0.00 0.00 60 1009.7
20260831045217 70 239 4.0 12.0 0.00 0.00 0.00 60 1009.7
20260831045116 70 193 4.0 12.0 0.00 0.00 0.00 60 1009.7
20260831045103 70 246 4.0 12.0 0.00 0.00 0.00 60 1009.7
20260831045011 70 212 4.0 12.0 0.00 0.00 0.00 60 1009.6
20260831044910 70 242 4.0 12.0 0.00 0.00 0.00 60 1009.7
20260831044824 70 271 4.0 12.0 0.00 0.00 0.00 60 1009.6
20260831044811 70 221 5.0 12.0 0.00 0.00 0.00 60 1009.7
20260831044720 70 245 5.0 12.0 0.00 0.00 0.00 60 1009.6
20260831044712 70 217 5.0 12.0 0.00 0.00 0.00 60 1009.6
20260831044510 70 205 4.0 9.0 0.00 0.00 0.00 60 1009.6
20260831044411 70 231 4.0 9.0 0.00 0.00 0.00 60 1009.6
20260831044311 70 233 4.0 11.0 0.00 0.00 0.00 60 1009.6
20260831044211 70 235 4.0 11.0 0.00 0.00 0.00 60 1009.6
20260831044110 70 250 4.0 11.0 0.00 0.00 0.00 60 1009.6
20260831044104 70 243 4.0 11.0 0.00 0.00 0.00 60 1009.6
20260831044010 70 269 4.0 11.0 0.00 0.00 0.00 60 1009.6
20260831043911 70 278 4.0 11.0 0.00 0.00 0.00 60 1009.6
20260831043816 71 253 5.0 12.0 0.00 0.00 0.00 59 1009.6
20260831043811 70 218 5.0 11.0 0.00 0.00 0.00 59 1009.6
20260831043714 70 215 4.0 11.0 0.00 0.00 0.00 59 1009.6
20260831043706 71 219 4.0 12.0 0.00 0.00 0.00 59 1009.6
20260831043511 71 257 5.0 12.0 0.00 0.00 0.00 59 1009.6
20260831043410 71 219 5.0 12.0 0.00 0.00 0.00 59 1009.6
20260831043306 71 256 5.0 12.0 0.00 0.00 0.00 59 1009.6
20260831043207 71 230 5.0 12.0 0.00 0.00 0.00 59 1009.6
20260831043107 71 245 5.0 12.0 0.00 0.00 0.00 59 1009.6
20260831043059 71 224 5.0 12.0 0.00 0.00 0.00 59 1009.6
20260831043006 71 263 5.0 12.0 0.00 0.00 0.00 59 1009.6
20260831042903 71 192 4.0 12.0 0.00 0.00 0.00 59 1009.6
20260831042756 71 242 4.0 12.0 0.00 0.00 0.00 59 1009.6
20260831042657 71 277 4.0 12.0 0.00 0.00 0.00 59 1009.6
20260831042600 71 225 4.0 10.0 0.00 0.00 0.00 59 1009.6
20260831042556 71 242 4.0 10.0 0.00 0.00 0.00 59 1009.6
20260831042458 71 257 4.0 11.0 0.00 0.00 0.00 58 1009.5
20260831042356 71 239 4.0 11.0 0.00 0.00 0.00 58 1009.6
20260831042315 71 224 5.0 12.0 0.00 0.00 0.00 58 1009.5
20260831042255 71 276 4.0 11.0 0.00 0.00 0.00 58 1009.6
20260831042210 71 256 5.0 11.0 0.00 0.00 0.00 58 1009.5
20260831042200 71 224 5.0 12.0 0.00 0.00 0.00 58 1009.5
20260831041954 71 216 5.0 12.0 0.00 0.00 0.00 58 1009.5
20260831041854 71 224 5.0 12.0 0.00 0.00 0.00 58 1009.5
20260831041823 71 242 5.0 12.0 0.00 0.00 0.00 57 1009.5
20260831041754 71 225 5.0 12.0 0.00 0.00 0.00 58 1009.4
20260831041714 71 228 5.0 12.0 0.00 0.00 0.00 58 1009.5
20260831041702 71 242 5.0 12.0 0.00 0.00 0.00 57 1009.5
20260831041458 72 203 5.0 12.0 0.00 0.00 0.00 57 1009.5
20260831041353 72 259 6.0 12.0 0.00 0.00 0.00 57 1009.5
20260831041253 72 218 6.0 12.0 0.00 0.00 0.00 57 1009.5
20260831041150 72 231 5.0 12.0 0.00 0.00 0.00 57 1009.5
20260831041056 72 228 5.0 11.0 0.00 0.00 0.00 57 1009.5
20260831041051 72 221 5.0 11.0 0.00 0.00 0.00 57 1009.5
20260831040951 72 174 5.0 11.0 0.00 0.00 0.00 57 1009.5
20260831040850 72 212 6.0 11.0 0.00 0.00 0.00 57 1009.5
20260831040750 72 240 6.0 11.0 0.00 0.00 0.00 57 1009.5
20260831040650 72 242 6.0 12.0 0.00 0.00 0.00 56 1009.5
20260831040556 72 197 6.0 12.0 0.00 0.00 0.00 56 1009.4
20260831040544 72 224 6.0 12.0 0.00 0.00 0.00 56 1009.4
20260831040444 72 219 6.0 14.0 0.00 0.00 0.00 56 1009.4
20260831040344 72 253 6.0 14.0 0.00 0.00 0.00 56 1009.4
20260831040245 73 236 6.0 14.0 0.00 0.00 0.00 56 1009.4
20260831040143 73 243 6.0 14.0 0.00 0.00 0.00 56 1009.4
20260831040110 73 226 7.0 14.0 0.00 0.00 0.00 56 1009.4
20260831040052 73 215 5.0 14.0 0.00 0.00 0.00 55 1009.4
20260831040039 73 246 7.0 14.0 0.00 0.00 0.00 56 1009.4
20260831035939 73 229 7.0 14.0 0.00 0.00 0.00 56 1009.3
20260831035930 73 228 6.0 14.0 0.00 0.00 0.00 55 1009.3
20260831035736 73 219 6.0 14.0 0.00 0.00 0.00 55 1009.4
20260831035706 73 248 6.0 14.0 0.00 0.00 0.00 55 1009.3
20260831035532 73 236 5.0 14.0 0.00 0.00 0.00 55 1009.4
20260831035431 73 200 5.0 12.0 0.00 0.00 0.00 55 1009.3
20260831035331 73 218 5.0 12.0 0.00 0.00 0.00 55 1009.3
20260831035231 73 256 5.0 11.0 0.00 0.00 0.00 55 1009.3
20260831035128 73 263 5.0 12.0 0.00 0.00 0.00 55 1009.3
20260831035054 73 217 5.0 12.0 0.00 0.00 0.00 55 1009.3
20260831035023 73 241 5.0 12.0 0.00 0.00 0.00 55 1009.3
20260831034921 73 219 5.0 12.0 0.00 0.00 0.00 55 1009.3
20260831034820 73 250 5.0 12.0 0.00 0.00 0.00 55 1009.3
20260831034721 73 238 5.0 12.0 0.00 0.00 0.00 54 1009.3
20260831034620 74 257 5.0 12.0 0.00 0.00 0.00 54 1009.3
20260831034554 74 238 5.0 12.0 0.00 0.00 0.00 54 1009.3
20260831034515 74 236 5.0 12.0 0.00 0.00 0.00 54 1009.3
20260831034415 74 253 5.0 12.0 0.00 0.00 0.00 54 1009.2
20260831034314 74 239 6.0 13.0 0.00 0.00 0.00 54 1009.2
20260831034214 74 249 6.0 13.0 0.00 0.00 0.00 54 1009.2
20260831034113 74 239 6.0 13.0 0.00 0.00 0.00 54 1009.2
20260831034054 74 239 6.0 13.0 0.00 0.00 0.00 54 1009.2
20260831034007 74 219 6.0 13.0 0.00 0.00 0.00 53 1009.2
20260831033906 74 224 6.0 13.0 0.00 0.00 0.00 53 1009.2
20260831033807 74 259 6.0 13.0 0.00 0.00 0.00 53 1009.2
20260831033707 74 208 6.0 13.0 0.00 0.00 0.00 53 1009.2
20260831033606 74 239 6.0 13.0 0.00 0.00 0.00 53 1009.2
20260831033554 74 247 6.0 13.0 0.00 0.00 0.00 53 1009.2
20260831033503 74 235 6.0 13.0 0.00 0.00 0.00 53 1009.2
20260831033401 74 207 6.0 13.0 0.00 0.00 0.00 53 1009.2
20260831033300 74 233 6.0 12.0 0.00 0.00 0.00 53 1009.2
20260831033201 74 233 6.0 12.0 0.00 0.00 0.00 53 1009.2
20260831033102 75 224 6.0 14.0 0.00 0.00 0.00 52 1009.1
20260831033056 75 236 6.0 14.0 0.00 0.00 0.00 52 1009.1
20260831032958 75 200 6.0 14.0 0.00 0.00 0.00 52 1009.2
20260831032855 75 231 5.0 14.0 0.00 0.00 0.00 52 1009.2
20260831032754 75 212 5.0 14.0 0.00 0.00 0.00 52 1009.2
20260831032708 75 240 5.0 14.0 0.00 0.00 0.00 52 1009.2
20260831032600 75 212 5.0 14.0 0.00 0.00 0.00 52 1009.2
20260831032450 75 229 5.0 14.0 0.00 0.00 0.00 51 1009.1
20260831032354 76 197 5.0 14.0 0.00 0.00 0.00 51 1009.1
20260831032248 76 236 5.0 14.0 0.00 0.00 0.00 51 1009.0
20260831032149 76 250 5.0 11.0 0.00 0.00 0.00 51 1009.1
20260831032055 76 203 4.0 11.0 0.00 0.00 0.00 50 1009.1
20260831032047 76 225 4.0 11.0 0.00 0.00 0.00 50 1009.1
20260831032039 77 218 5.0 12.0 0.00 0.00 0.00 48 1009.0
20260831031947 76 218 5.0 11.0 0.00 0.00 0.00 50 1009.1
20260831031849 76 255 5.0 11.0 0.00 0.00 0.00 49 1009.0
20260831031746 76 207 5.0 12.0 0.00 0.00 0.00 49 1009.0
20260831031711 77 228 5.0 12.0 0.00 0.00 0.00 49 1009.0
20260831031701 77 256 5.0 12.0 0.00 0.00 0.00 49 1009.0
20260831031444 77 256 5.0 12.0 0.00 0.00 0.00 48 1009.0
20260831031344 77 233 5.0 12.0 0.00 0.00 0.00 48 1009.0
20260831031242 77 212 5.0 12.0 0.00 0.00 0.00 48 1009.0
20260831031142 77 235 4.0 12.0 0.00 0.00 0.00 47 1009.0
20260831031055 78 246 5.0 12.0 0.00 0.00 0.00 47 1009.0
20260831031047 78 259 5.0 12.0 0.00 0.00 0.00 47 1009.0
20260831030940 78 222 4.0 12.0 0.00 0.00 0.00 46 1009.0
20260831030840 78 279 4.0 12.0 0.00 0.00 0.00 46 1009.0
20260831030740 78 214 4.0 11.0 0.00 0.00 0.00 46 1009.0
20260831030640 78 256 4.0 11.0 0.00 0.00 0.00 46 1009.0
20260831030540 78 229 3.0 9.0 0.00 0.00 0.00 45 1009.0
20260831030528 78 232 3.0 9.0 0.00 0.00 0.00 45 1009.0
20260831030440 78 246 3.0 9.0 0.00 0.00 0.00 45 1008.9
20260831030339 78 253 3.0 7.0 0.00 0.00 0.00 44 1009.0
20260831030234 78 221 3.0 10.0 0.00 0.00 0.00 44 1008.9
20260831030134 78 256 4.0 11.0 0.00 0.00 0.00 44 1008.9
20260831030034 79 252 4.0 11.0 0.00 0.00 0.00 43 1008.9
20260831030026 79 226 4.0 11.0 0.00 0.00 0.00 43 1008.9
20260831025932 79 274 4.0 11.0 0.00 0.00 0.00 43 1008.9
20260831025831 79 255 4.0 11.0 0.00 0.00 0.00 43 1008.9
20260831025726 79 240 4.0 11.0 0.00 0.00 0.00 43 1008.9
20260831025626 79 224 4.0 11.0 0.00 0.00 0.00 42 1008.9
20260831025528 79 222 4.0 11.0 0.00 0.00 0.00 42 1008.9
20260831025426 79 243 4.0 11.0 0.00 0.00 0.00 42 1008.9
20260831025325 79 249 4.0 11.0 0.00 0.00 0.00 42 1008.9
20260831025225 79 233 4.0 11.0 0.00 0.00 0.00 42 1008.9
20260831025120 79 235 4.0 11.0 0.00 0.00 0.00 42 1009.0
20260831025027 79 228 3.0 9.0 0.00 0.00 0.00 43 1008.9
20260831025021 79 231 3.0 9.0 0.00 0.00 0.00 43 1008.9
20260831024920 80 256 3.0 9.0 0.00 0.00 0.00 42 1008.9
20260831024817 80 229 3.0 9.0 0.00 0.00 0.00 42 1008.9
20260831024718 80 191 3.0 9.0 0.00 0.00 0.00 43 1008.9
20260831024618 80 236 3.0 9.0 0.00 0.00 0.00 42 1008.9
20260831024526 80 181 3.0 9.0 0.00 0.00 0.00 43 1008.9
20260831024516 80 229 3.0 9.0 0.00 0.00 0.00 43 1008.9
20260831024416 80 228 3.0 9.0 0.00 0.00 0.00 42 1008.9
20260831024316 80 226 2.0 9.0 0.00 0.00 0.00 43 1008.8
20260831024216 80 245 3.0 11.0 0.00 0.00 0.00 42 1008.9
20260831024116 80 238 3.0 11.0 0.00 0.00 0.00 42 1008.9
20260831024024 80 225 3.0 11.0 0.00 0.00 0.00 42 1008.9
20260831024016 80 245 3.0 11.0 0.00 0.00 0.00 42 1008.9
20260831023916 80 224 3.0 11.0 0.00 0.00 0.00 42 1008.9
20260831023814 80 203 3.0 11.0 0.00 0.00 0.00 42 1008.9
20260831023714 80 222 3.0 11.0 0.00 0.00 0.00 42 1008.9
20260831023612 80 282 3.0 11.0 0.00 0.00 0.00 41 1008.9
20260831023525 80 285 3.0 11.0 0.00 0.00 0.00 41 1008.9
20260831023512 81 221 3.0 11.0 0.00 0.00 0.00 41 1008.8
20260831023412 81 246 3.0 11.0 0.00 0.00 0.00 41 1008.8
20260831023312 81 259 3.0 11.0 0.00 0.00 0.00 41 1008.8
20260831023212 81 240 3.0 9.0 0.00 0.00 0.00 41 1008.8
20260831023112 81 212 3.0 9.0 0.00 0.00 0.00 41 1008.8
20260831023024 81 246 3.0 8.0 0.00 0.00 0.00 40 1008.8
20260831023013 81 271 3.0 8.0 0.00 0.00 0.00 40 1008.8
20260831022911 81 231 2.0 8.0 0.00 0.00 0.00 40 1008.8
20260831022812 81 238 3.0 8.0 0.00 0.00 0.00 40 1008.8
20260831022754 81 284 3.0 8.0 0.00 0.00 0.00 40 1008.8
20260831022712 81 225 3.0 8.0 0.00 0.00 0.00 40 1008.8
20260831022613 81 231 3.0 8.0 0.00 0.00 0.00 40 1008.8
20260831022512 81 284 3.0 8.0 0.00 0.00 0.00 40 1008.8
20260831022412 81 307 3.0 8.0 0.00 0.00 0.00 40 1008.7
20260831022312 81 271 3.0 8.0 0.00 0.00 0.00 40 1008.7
20260831022210 81 264 2.0 8.0 0.00 0.00 0.00 40 1008.7
20260831022110 82 245 3.0 7.0 0.00 0.00 0.00 40 1008.7
20260831022023 82 250 3.0 7.0 0.00 0.00 0.00 39 1008.7
20260831022008 82 245 3.0 7.0 0.00 0.00 0.00 40 1008.7
20260831021906 82 248 3.0 7.0 0.00 0.00 0.00 39 1008.7
20260831021806 82 242 3.0 7.0 0.00 0.00 0.00 39 1008.7
20260831021706 82 224 3.0 7.0 0.00 0.00 0.00 39 1008.7
20260831021604 82 233 3.0 9.0 0.00 0.00 0.00 39 1008.7
20260831021524 82 231 3.0 9.0 0.00 0.00 0.00 39 1008.7
20260831021504 82 235 3.0 9.0 0.00 0.00 0.00 39 1008.7
20260831021402 82 239 3.0 9.0 0.00 0.00 0.00 39 1008.7
20260831021301 82 218 3.0 9.0 0.00 0.00 0.00 39 1008.7
20260831021202 82 219 4.0 9.0 0.00 0.00 0.00 39 1008.7
20260831021102 82 243 4.0 9.0 0.00 0.00 0.00 39 1008.7
20260831021022 82 205 4.0 9.0 0.00 0.00 0.00 39 1008.7
20260831021003 82 248 4.0 9.0 0.00 0.00 0.00 39 1008.7
20260831020902 82 239 4.0 9.0 0.00 0.00 0.00 38 1008.7
20260831020756 83 233 3.0 9.0 0.00 0.00 0.00 38 1008.7
20260831020656 83 217 3.0 9.0 0.00 0.00 0.00 38 1008.7
20260831020556 83 230 3.0 9.0 0.00 0.00 0.00 37 1008.7
20260831020521 83 240 3.0 9.0 0.00 0.00 0.00 37 1008.7
20260831020457 83 235 3.0 9.0 0.00 0.00 0.00 37 1008.8
20260831020354 83 243 3.0 9.0 0.00 0.00 0.00 36 1008.8
20260831020250 83 269 3.0 9.0 0.00 0.00 0.00 35 1008.8
20260831020150 83 231 3.0 7.0 0.00 0.00 0.00 35 1008.7
20260831020049 83 256 3.0 9.0 0.00 0.00 0.00 35 1008.8
20260831020024 83 238 3.0 9.0 0.00 0.00 0.00 35 1008.8
20260831015950 83 240 3.0 9.0 0.00 0.00 0.00 35 1008.8
20260831015847 83 249 3.0 9.0 0.00 0.00 0.00 35 1008.8
20260831015743 83 238 3.0 9.0 0.00 0.00 0.00 35 1008.8
20260831015644 83 238 4.0 9.0 0.00 0.00 0.00 35 1008.7
20260831015545 83 229 4.0 9.0 0.00 0.00 0.00 35 1008.8
20260831015521 83 246 4.0 9.0 0.00 0.00 0.00 35 1008.8
20260831015443 83 232 4.0 9.0 0.00 0.00 0.00 35 1008.8
20260831015342 83 235 4.0 9.0 0.00 0.00 0.00 34 1008.8
20260831015237 83 236 4.0 9.0 0.00 0.00 0.00 34 1008.8
20260831015138 83 218 4.0 9.0 0.00 0.00 0.00 34 1008.7
20260831015037 84 233 3.0 8.0 0.00 0.00 0.00 35 1008.8
20260831015015 84 219 3.0 8.0 0.00 0.00 0.00 35 1008.7
20260831014937 84 243 3.0 8.0 0.00 0.00 0.00 35 1008.7
20260831014836 84 263 3.0 8.0 0.00 0.00 0.00 35 1008.8
20260831014731 84 260 3.0 8.0 0.00 0.00 0.00 35 1008.8
20260831014631 84 288 3.0 8.0 0.00 0.00 0.00 34 1008.7
20260831014531 84 236 3.0 9.0 0.00 0.00 0.00 35 1008.8
20260831014510 84 198 3.0 9.0 0.00 0.00 0.00 35 1008.8
20260831014431 84 207 3.0 9.0 0.00 0.00 0.00 35 1008.8
20260831014330 84 219 3.0 9.0 0.00 0.00 0.00 36 1008.7
20260831014234 84 235 4.0 9.0 0.00 0.00 0.00 35 1008.7
20260831014226 84 250 4.0 10.0 0.00 0.00 0.00 35 1008.7
20260831014129 84 232 4.0 10.0 0.00 0.00 0.00 35 1008.7
20260831014029 84 243 4.0 10.0 0.00 0.00 0.00 35 1008.8
20260831013927 84 259 4.0 10.0 0.00 0.00 0.00 35 1008.7
20260831013824 84 236 4.0 10.0 0.00 0.00 0.00 35 1008.7
20260831013719 84 219 4.0 10.0 0.00 0.00 0.00 35 1008.7
20260831013619 84 248 4.0 10.0 0.00 0.00 0.00 35 1008.7
20260831013521 85 228 3.0 10.0 0.00 0.00 0.00 35 1008.7
20260831013457 85 260 3.0 10.0 0.00 0.00 0.00 35 1008.7
20260831013418 85 205 3.0 10.0 0.00 0.00 0.00 35 1008.7
20260831013321 85 259 3.0 10.0 0.00 0.00 0.00 35 1008.7
20260831013215 85 243 2.0 10.0 0.00 0.00 0.00 35 1008.7
20260831013114 85 253 2.0 7.0 0.00 0.00 0.00 36 1008.7
20260831013015 85 235 2.0 5.0 0.00 0.00 0.00 36 1008.7
20260831012951 85 248 2.0 4.0 0.00 0.00 0.00 36 1008.7
20260831012915 85 236 2.0 5.0 0.00 0.00 0.00 36 1008.7
20260831012812 85 212 2.0 5.0 0.00 0.00 0.00 36 1008.7
20260831012707 85 228 2.0 5.0 0.00 0.00 0.00 35 1008.7
20260831012606 85 228 2.0 10.0 0.00 0.00 0.00 35 1008.7
20260831012507 85 225 2.0 10.0 0.00 0.00 0.00 35 1008.7
20260831012445 85 223 2.0 10.0 0.00 0.00 0.00 35 1008.7
20260831012407 85 233 3.0 10.0 0.00 0.00 0.00 35 1008.7
20260831012306 85 239 3.0 10.0 0.00 0.00 0.00 35 1008.8
20260831012206 85 238 3.0 10.0 0.00 0.00 0.00 37 1008.8
20260831012105 85 238 3.0 10.0 0.00 0.00 0.00 37 1008.7
20260831012003 85 225 2.0 10.0 0.00 0.00 0.00 36 1008.8
20260831011939 85 236 2.0 10.0 0.00 0.00 0.00 36 1008.8
20260831011901 85 227 2.0 10.0 0.00 0.00 0.00 36 1008.8
20260831011800 85 271 3.0 10.0 0.00 0.00 0.00 36 1008.8
20260831011702 85 267 2.0 10.0 0.00 0.00 0.00 36 1008.7
20260831011600 85 226 2.0 9.0 0.00 0.00 0.00 36 1008.8
20260831011459 85 191 3.0 9.0 0.00 0.00 0.00 35 1008.8
20260831011433 85 238 3.0 9.0 0.00 0.00 0.00 35 1008.8
20260831011423 85 282 4.0 10.0 0.00 0.00 0.00 35 1008.8
20260831011357 85 284 3.0 9.0 0.00 0.00 0.00 35 1008.8
20260831011305 85 239 3.0 9.0 0.00 0.00 0.00 35 1008.8
20260831011151 85 226 3.0 9.0 0.00 0.00 0.00 35 1008.8
20260831011052 85 238 3.0 9.0 0.00 0.00 0.00 35 1008.8
20260831011044 85 283 4.0 10.0 0.00 0.00 0.00 35 1008.8
20260831010848 85 231 4.0 10.0 0.00 0.00 0.00 35 1008.8
20260831010749 86 233 3.0 10.0 0.00 0.00 0.00 35 1008.8
20260831010720 86 243 3.0 10.0 0.00 0.00 0.00 35 1008.8
20260831010549 86 266 4.0 10.0 0.00 0.00 0.00 35 1008.8
20260831010447 85 226 4.0 10.0 0.00 0.00 0.00 35 1008.8
20260831010434 85 232 4.0 10.0 0.00 0.00 0.00 35 1008.8
20260831010345 85 231 4.0 12.0 0.00 0.00 0.00 35 1008.8
20260831010242 85 222 5.0 12.0 0.00 0.00 0.00 35 1008.8
20260831010157 86 233 4.0 12.0 0.00 0.00 0.00 35 1008.8
20260831010137 85 284 4.0 12.0 0.00 0.00 0.00 34 1008.7
20260831010052 86 236 4.0 12.0 0.00 0.00 0.00 35 1008.8
20260831010042 86 233 4.0 12.0 0.00 0.00 0.00 35 1008.8
20260831005837 86 233 5.0 12.0 0.00 0.00 0.00 35 1008.8
20260831005736 86 245 5.0 12.0 0.00 0.00 0.00 35 1008.8
20260831005633 86 250 5.0 12.0 0.00 0.00 0.00 34 1008.8
20260831005531 86 208 5.0 12.0 0.00 0.00 0.00 34 1008.8
20260831005436 86 221 5.0 12.0 0.00 0.00 0.00 34 1008.8
20260831005431 86 245 5.0 12.0 0.00 0.00 0.00 34 1008.8
20260831005331 86 226 5.0 12.0 0.00 0.00 0.00 34 1008.8
20260831005230 86 231 5.0 12.0 0.00 0.00 0.00 34 1008.8
20260831005123 86 250 5.0 12.0 0.00 0.00 0.00 34 1008.8
20260831005022 86 256 5.0 12.0 0.00 0.00 0.00 34 1008.8
20260831004935 86 240 5.0 12.0 0.00 0.00 0.00 33 1008.8
20260831004922 86 143 5.0 12.0 0.00 0.00 0.00 33 1008.8
20260831004823 86 222 4.0 12.0 0.00 0.00 0.00 33 1008.8
20260831004722 86 228 4.0 10.0 0.00 0.00 0.00 34 1008.8
20260831004617 87 240 4.0 10.0 0.00 0.00 0.00 34 1008.8
20260831004517 87 264 4.0 10.0 0.00 0.00 0.00 34 1008.9
20260831004434 87 253 4.0 10.0 0.00 0.00 0.00 34 1008.9
20260831004417 87 256 4.0 10.0 0.00 0.00 0.00 34 1008.9
20260831004317 87 236 4.0 10.0 0.00 0.00 0.00 34 1008.9
20260831004215 87 144 4.0 10.0 0.00 0.00 0.00 34 1008.9
20260831004106 87 247 3.0 10.0 0.00 0.00 0.00 34 1008.9
20260831004006 87 245 4.0 10.0 0.00 0.00 0.00 35 1008.9
20260831003934 87 231 4.0 10.0 0.00 0.00 0.00 35 1008.9
20260831003905 87 236 3.0 10.0 0.00 0.00 0.00 34 1008.9
20260831003806 87 242 3.0 10.0 0.00 0.00 0.00 34 1008.9
20260831003705 87 226 4.0 10.0 0.00 0.00 0.00 34 1008.9
20260831003602 87 160 4.0 10.0 0.00 0.00 0.00 34 1008.9
20260831003500 87 188 4.0 10.0 0.00 0.00 0.00 34 1008.9
20260831003434 87 190 4.0 10.0 0.00 0.00 0.00 34 1008.9
20260831003400 87 212 4.0 10.0 0.00 0.00 0.00 35 1008.8
20260831003300 87 210 3.0 10.0 0.00 0.00 0.00 34 1008.9
20260831003157 87 210 3.0 8.0 0.00 0.00 0.00 35 1008.8
20260831003050 87 236 4.0 9.0 0.00 0.00 0.00 35 1008.8
20260831002950 87 243 4.0 9.0 0.00 0.00 0.00 35 1008.8
20260831002932 87 213 4.0 9.0 0.00 0.00 0.00 35 1008.8
20260831002850 87 226 4.0 9.0 0.00 0.00 0.00 34 1008.9
20260831002750 87 238 4.0 10.0 0.00 0.00 0.00 34 1008.8
20260831002649 87 235 4.0 10.0 0.00 0.00 0.00 34 1008.8
20260831002544 87 235 4.0 10.0 0.00 0.00 0.00 34 1008.8
20260831002444 87 204 4.0 10.0 0.00 0.00 0.00 35 1008.8
20260831002430 87 155 4.0 10.0 0.00 0.00 0.00 35 1008.8
20260831002344 87 253 4.0 11.0 0.00 0.00 0.00 35 1008.8
20260831002244 87 236 5.0 11.0 0.00 0.00 0.00 35 1008.8
20260831002202 87 240 5.0 11.0 0.00 0.00 0.00 35 1008.9
20260831002142 87 271 5.0 11.0 0.00 0.00 0.00 35 1008.9
20260831002046 87 256 5.0 11.0 0.00 0.00 0.00 35 1008.9
20260831002038 87 266 5.0 11.0 0.00 0.00 0.00 35 1008.9
20260831001912 87 246 4.0 13.0 0.00 0.00 0.00 36 1008.9
20260831001836 87 232 5.0 11.0 0.00 0.00 0.00 36 1008.9
20260831001758 87 249 5.0 13.0 0.00 0.00 0.00 35 1008.8
20260831001636 87 215 5.0 13.0 0.00 0.00 0.00 35 1008.8
20260831001545 87 208 5.0 13.0 0.00 0.00 0.00 35 1008.9
20260831001537 87 246 4.0 13.0 0.00 0.00 0.00 36 1008.9
20260831001332 87 257 4.0 13.0 0.00 0.00 0.00 36 1008.9
20260831001230 87 167 4.0 13.0 0.00 0.00 0.00 36 1008.9
20260831001128 87 219 4.0 13.0 0.00 0.00 0.00 35 1008.9
20260831001020 87 229 3.0 13.0 0.00 0.00 0.00 35 1009.0
20260831000930 88 231 3.0 13.0 0.00 0.00 0.00 35 1009.0
20260831000919 88 252 3.0 13.0 0.00 0.00 0.00 35 1009.0
20260831000820 88 239 3.0 13.0 0.00 0.00 0.00 35 1009.0
20260831000720 88 238 3.0 9.0 0.00 0.00 0.00 36 1009.0
20260831000619 88 232 3.0 9.0 0.00 0.00 0.00 36 1009.0
20260831000514 88 233 3.0 7.0 0.00 0.00 0.00 36 1009.0
20260831000432 88 229 3.0 7.0 0.00 0.00 0.00 36 1009.0
20260831000414 88 240 3.0 7.0 0.00 0.00 0.00 36 1009.0
20260831000314 88 195 3.0 8.0 0.00 0.00 0.00 36 1009.0
20260831000214 88 238 3.0 8.0 0.00 0.00 0.00 36 1009.0
20260831000112 88 239 4.0 8.0 0.00 0.00 0.00 36 1009.0
20260831000006 88 194 4.0 9.0 0.00 0.00 0.00 36 1009.0
20260830235932 88 228 4.0 9.0 0.00 0.00 0.00 36 1009.0
20260830235905 88 197 4.0 9.0 0.00 0.00 0.00 35 1009.0
20260830235806 88 228 3.0 9.0 0.00 0.00 0.00 35 1009.0
20260830235705 88 214 3.0 9.0 0.00 0.00 0.00 35 1009.0
20260830235606 88 192 3.0 9.0 0.00 0.00 0.00 35 1009.0
20260830235502 89 173 3.0 9.0 0.00 0.00 0.00 35 1009.1
20260830235426 89 202 3.0 9.0 0.00 0.00 0.00 35 1009.1
20260830235400 89 217 2.0 9.0 0.00 0.00 0.00 34 1009.0
20260830235300 89 236 2.0 9.0 0.00 0.00 0.00 34 1009.0
20260830235200 89 239 2.0 9.0 0.00 0.00 0.00 34 1009.0
20260830235059 90 250 2.0 9.0 0.00 0.00 0.00 34 1009.0
20260830234955 90 235 2.0 5.0 0.00 0.00 0.00 35 1009.0
20260830234920 90 236 2.0 6.0 0.00 0.00 0.00 34 1009.0
20260830234854 90 236 2.0 6.0 0.00 0.00 0.00 34 1009.0
20260830234754 90 233 3.0 8.0 0.00 0.00 0.00 35 1009.1
20260830234653 90 239 3.0 8.0 0.00 0.00 0.00 34 1009.1
20260830234554 90 155 3.0 8.0 0.00 0.00 0.00 34 1009.1
20260830234450 90 155 3.0 8.0 0.00 0.00 0.00 34 1009.1
20260830234414 90 214 3.0 8.0 0.00 0.00 0.00 34 1009.1
20260830234350 90 135 3.0 8.0 0.00 0.00 0.00 34 1009.1
20260830234250 90 115 3.0 8.0 0.00 0.00 0.00 34 1009.1
20260830234150 90 229 3.0 8.0 0.00 0.00 0.00 34 1009.1
20260830234139 90 238 3.0 8.0 0.00 0.00 0.00 33 1009.1
20260830234048 90 173 3.0 8.0 0.00 0.00 0.00 34 1009.1
20260830234021 90 118 3.0 8.0 0.00 0.00 0.00 33 1009.1
20260830233842 90 238 2.0 8.0 0.00 0.00 0.00 34 1009.1
20260830233742 90 219 2.0 7.0 0.00 0.00 0.00 34 1009.1
20260830233643 90 136 2.0 6.0 0.00 0.00 0.00 34 1009.1
20260830233637 91 233 2.0 5.0 0.00 0.00 0.00 33 1009.1
20260830233541 90 117 2.0 6.0 0.00 0.00 0.00 33 1009.1
20260830233522 90 153 2.0 5.0 0.00 0.00 0.00 34 1009.1
20260830233340 91 233 1.0 5.0 0.00 0.00 0.00 33 1009.1
20260830233241 91 224 1.0 5.0 0.00 0.00 0.00 31 1009.1
20260830233138 91 235 1.0 5.0 0.00 0.00 0.00 31 1009.1
20260830233035 91 236 1.0 5.0 0.00 0.00 0.00 31 1009.1
20260830232934 91 92 1.0 5.0 0.00 0.00 0.00 30 1009.2
20260830232926 91 192 1.0 5.0 0.00 0.00 0.00 30 1009.2
20260830232830 91 214 1.0 5.0 0.00 0.00 0.00 31 1009.1
20260830232730 91 214 1.0 5.0 0.00 0.00 0.00 30 1009.2
20260830232630 91 298 1.0 4.0 0.00 0.00 0.00 31 1009.2
20260830232530 91 215 1.0 4.0 0.00 0.00 0.00 32 1009.2
20260830232428 91 256 1.0 4.0 0.00 0.00 0.00 32 1009.2
20260830232414 91 236 1.0 4.0 0.00 0.00 0.00 33 1009.2
20260830232328 91 236 1.0 4.0 0.00 0.00 0.00 33 1009.2
20260830232228 91 236 1.0 4.0 0.00 0.00 0.00 32 1009.2
20260830232127 91 236 1.0 4.0 0.00 0.00 0.00 32 1009.3
20260830232023 91 236 1.0 4.0 0.00 0.00 0.00 32 1009.3
20260830231924 91 236 1.0 4.0 0.00 0.00 0.00 31 1009.3
20260830231911 91 240 1.0 4.0 0.00 0.00 0.00 31 1009.3
20260830231822 91 240 1.0 4.0 0.00 0.00 0.00 32 1009.3
20260830231720 91 238 1.0 5.0 0.00 0.00 0.00 32 1009.3
20260830231620 91 131 2.0 7.0 0.00 0.00 0.00 31 1009.3
20260830231517 91 240 2.0 7.0 0.00 0.00 0.00 33 1009.3
20260830231411 91 236 2.0 8.0 0.00 0.00 0.00 33 1009.3
20260830231406 90 207 2.0 8.0 0.00 0.00 0.00 32 1009.4
20260830231314 90 219 2.0 8.0 0.00 0.00 0.00 33 1009.3
20260830231246 90 233 2.0 8.0 0.00 0.00 0.00 33 1009.3
20260830231114 90 207 2.0 8.0 0.00 0.00 0.00 32 1009.3
20260830231024 90 207 2.0 8.0 0.00 0.00 0.00 32 1009.3
20260830230908 90 207 2.0 8.0 0.00 0.00 0.00 32 1009.4
20260830230807 90 219 2.0 8.0 0.00 0.00 0.00 32 1009.4
20260830230708 90 228 1.0 8.0 0.00 0.00 0.00 31 1009.4
20260830230606 90 228 1.0 8.0 0.00 0.00 0.00 32 1009.4
20260830230505 90 60 1.0 4.0 0.00 0.00 0.00 33 1009.4
20260830230410 90 221 1.0 4.0 0.00 0.00 0.00 33 1009.4
20260830230402 90 207 1.0 4.0 0.00 0.00 0.00 33 1009.4
20260830230300 90 133 1.0 4.0 0.00 0.00 0.00 33 1009.4
20260830230200 90 133 1.0 4.0 0.00 0.00 0.00 34 1009.5
20260830230100 90 85 2.0 4.0 0.00 0.00 0.00 34 1009.4
20260830225959 90 85 2.0 4.0 0.00 0.00 0.00 33 1009.5
20260830225910 90 86 2.0 5.0 0.00 0.00 0.00 34 1009.5
20260830225900 90 87 2.0 5.0 0.00 0.00 0.00 34 1009.5
20260830225758 90 137 2.0 5.0 0.00 0.00 0.00 34 1009.5
20260830225656 90 136 2.0 5.0 0.00 0.00 0.00 34 1009.5
20260830225638 90 231 2.0 7.0 0.00 0.00 0.00 34 1009.6
20260830225556 90 156 2.0 5.0 0.00 0.00 0.00 34 1009.5
20260830225521 90 172 2.0 7.0 0.00 0.00 0.00 34 1009.6
20260830225349 90 232 2.0 7.0 0.00 0.00 0.00 34 1009.6
20260830225250 90 233 2.0 7.0 0.00 0.00 0.00 33 1009.6
20260830225148 90 180 2.0 7.0 0.00 0.00 0.00 34 1009.6
20260830225048 90 228 2.0 7.0 0.00 0.00 0.00 35 1009.6
20260830224945 90 198 2.0 7.0 0.00 0.00 0.00 35 1009.6
20260830224910 89 202 2.0 7.0 0.00 0.00 0.00 35 1009.6
20260830224842 89 219 2.0 7.0 0.00 0.00 0.00 35 1009.6
20260830224740 89 207 2.0 7.0 0.00 0.00 0.00 34 1009.6
20260830224640 89 243 2.0 7.0 0.00 0.00 0.00 35 1009.6
20260830224540 89 196 2.0 7.0 0.00 0.00 0.00 34 1009.6
20260830224439 89 177 2.0 4.0 0.00 0.00 0.00 34 1009.6
20260830224410 89 307 2.0 4.0 0.00 0.00 0.00 34 1009.6
20260830224336 89 225 2.0 4.0 0.00 0.00 0.00 34 1009.6
20260830224236 89 226 2.0 4.0 0.00 0.00 0.00 33 1009.6
20260830224136 89 229 2.0 6.0 0.00 0.00 0.00 33 1009.7
20260830224036 89 218 2.0 6.0 0.00 0.00 0.00 33 1009.7
20260830223909 89 235 2.0 6.0 0.00 0.00 0.00 34 1009.7
20260830223830 89 228 2.0 6.0 0.00 0.00 0.00 35 1009.7
20260830223728 89 235 2.0 6.0 0.00 0.00 0.00 34 1009.8
20260830223633 89 135 2.0 6.0 0.00 0.00 0.00 35 1009.8
20260830223628 89 236 2.0 6.0 0.00 0.00 0.00 34 1009.7
20260830223528 89 208 2.0 6.0 0.00 0.00 0.00 34 1009.8
20260830223518 89 226 2.0 6.0 0.00 0.00 0.00 35 1009.8
20260830223323 89 217 2.0 6.0 0.00 0.00 0.00 35 1009.8
20260830223222 89 238 2.0 6.0 0.00 0.00 0.00 35 1009.8
20260830223122 89 233 2.0 5.0 0.00 0.00 0.00 35 1009.8
20260830223022 89 253 2.0 5.0 0.00 0.00 0.00 36 1009.8
20260830222910 89 250 2.0 5.0 0.00 0.00 0.00 36 1009.8
20260830222819 89 236 2.0 6.0 0.00 0.00 0.00 36 1009.8
20260830222720 88 170 2.0 9.0 0.00 0.00 0.00 35 1009.9
20260830222618 88 159 3.0 9.0 0.00 0.00 0.00 35 1009.9
20260830222519 88 124 3.0 9.0 0.00 0.00 0.00 34 1009.9
20260830222416 88 149 3.0 9.0 0.00 0.00 0.00 34 1010.0
20260830222408 88 145 3.0 9.0 0.00 0.00 0.00 34 1010.0
20260830222309 88 245 3.0 9.0 0.00 0.00 0.00 35 1010.0
20260830222210 88 244 3.0 9.0 0.00 0.00 0.00 34 1010.0
20260830222110 88 244 3.0 9.0 0.00 0.00 0.00 34 1010.1
20260830222008 88 245 3.0 9.0 0.00 0.00 0.00 32 1010.0
20260830221909 89 239 3.0 9.0 0.00 0.00 0.00 33 1010.1
20260830221802 89 240 2.0 9.0 0.00 0.00 0.00 34 1010.0
20260830221702 89 235 2.0 8.0 0.00 0.00 0.00 34 1010.1
20260830221602 89 214 2.0 6.0 0.00 0.00 0.00 35 1010.1
20260830221502 89 219 2.0 6.0 0.00 0.00 0.00 35 1010.1
20260830221406 89 163 2.0 6.0 0.00 0.00 0.00 34 1010.1
20260830221400 89 152 2.0 6.0 0.00 0.00 0.00 34 1010.1
20260830221300 89 219 2.0 6.0 0.00 0.00 0.00 35 1010.1
20260830221158 89 212 2.0 6.0 0.00 0.00 0.00 35 1010.1
20260830221058 88 353 2.0 6.0 0.00 0.00 0.00 36 1010.1
20260830220956 88 285 2.0 6.0 0.00 0.00 0.00 36 1010.2
20260830220904 88 284 3.0 7.0 0.00 0.00 0.00 37 1010.2
20260830220853 88 283 3.0 7.0 0.00 0.00 0.00 37 1010.2
20260830220749 88 293 3.0 7.0 0.00 0.00 0.00 36 1010.2
20260830220648 87 304 3.0 7.0 0.00 0.00 0.00 35 1010.2
20260830220548 87 141 3.0 7.0 0.00 0.00 0.00 34 1010.2
20260830220447 88 225 3.0 7.0 0.00 0.00 0.00 34 1010.3
20260830220402 88 217 3.0 7.0 0.00 0.00 0.00 35 1010.3
20260830220347 88 224 3.0 7.0 0.00 0.00 0.00 35 1010.3
20260830220242 88 160 2.0 7.0 0.00 0.00 0.00 35 1010.3
20260830220142 88 179 2.0 7.0 0.00 0.00 0.00 35 1010.3
20260830220043 88 219 2.0 7.0 0.00 0.00 0.00 36 1010.3
20260830215942 88 250 1.0 7.0 0.00 0.00 0.00 35 1010.4
20260830215903 89 239 1.0 7.0 0.00 0.00 0.00 35 1010.3
20260830215842 89 194 1.0 7.0 0.00 0.00 0.00 36 1010.3
20260830215740 89 238 1.0 4.0 0.00 0.00 0.00 36 1010.4
20260830215640 89 229 1.0 7.0 0.00 0.00 0.00 36 1010.4
20260830215542 88 232 1.0 7.0 0.00 0.00 0.00 35 1010.4
20260830215438 88 232 1.0 7.0 0.00 0.00 0.00 36 1010.4
20260830215402 88 229 2.0 7.0 0.00 0.00 0.00 37 1010.5
20260830215343 88 236 2.0 7.0 0.00 0.00 0.00 38 1010.6
20260830215335 88 222 2.0 7.0 0.00 0.00 0.00 38 1010.5
20260830215235 88 219 2.0 7.0 0.00 0.00 0.00 38 1010.5
20260830215226 88 218 2.0 7.0 0.00 0.00 0.00 38 1010.6
20260830215034 88 217 2.0 7.0 0.00 0.00 0.00 38 1010.6
20260830215010 88 236 2.0 7.0 0.00 0.00 0.00 37 1010.6
20260830214829 88 236 2.0 7.0 0.00 0.00 0.00 37 1010.6
20260830214724 88 231 2.0 7.0 0.00 0.00 0.00 36 1010.6
20260830214624 88 240 2.0 6.0 0.00 0.00 0.00 37 1010.6
20260830214524 88 278 1.0 6.0 0.00 0.00 0.00 38 1010.6
20260830214424 88 233 1.0 4.0 0.00 0.00 0.00 40 1010.6
20260830214403 87 232 2.0 4.0 0.00 0.00 0.00 40 1010.6
20260830214323 87 232 2.0 6.0 0.00 0.00 0.00 39 1010.6
20260830214220 87 232 2.0 6.0 0.00 0.00 0.00 40 1010.6
20260830214118 88 219 2.0 6.0 0.00 0.00 0.00 39 1010.6
20260830214018 88 231 2.0 6.0 0.00 0.00 0.00 39 1010.6
20260830213918 87 144 1.0 6.0 0.00 0.00 0.00 40 1010.7
20260830213903 87 144 1.0 6.0 0.00 0.00 0.00 39 1010.7
20260830213817 87 106 1.0 6.0 0.00 0.00 0.00 39 1010.7
20260830213712 87 225 1.0 6.0 0.00 0.00 0.00 40 1010.7
20260830213612 87 116 1.0 6.0 0.00 0.00 0.00 40 1010.8
20260830213511 87 117 1.0 6.0 0.00 0.00 0.00 40 1010.8
20260830213411 87 173 1.0 6.0 0.00 0.00 0.00 40 1010.8
20260830213401 87 180 1.0 6.0 0.00 0.00 0.00 40 1010.8
20260830213311 87 228 1.0 6.0 0.00 0.00 0.00 40 1010.8
20260830213210 86 112 1.0 6.0 0.00 0.00 0.00 42 1010.8
20260830213120 86 226 2.0 6.0 0.00 0.00 0.00 42 1010.9
20260830213110 86 314 1.0 6.0 0.00 0.00 0.00 42 1010.8
20260830213016 86 309 1.0 6.0 0.00 0.00 0.00 41 1010.8
20260830213007 86 305 2.0 6.0 0.00 0.00 0.00 42 1010.9
20260830212806 86 226 2.0 6.0 0.00 0.00 0.00 42 1010.9
20260830212702 86 226 2.0 6.0 0.00 0.00 0.00 43 1010.9
20260830212600 86 226 3.0 6.0 0.00 0.00 0.00 42 1010.9
20260830212500 85 226 3.0 7.0 0.00 0.00 0.00 42 1010.9
20260830212406 85 235 3.0 7.0 0.00 0.00 0.00 41 1010.9
20260830212358 85 229 3.0 7.0 0.00 0.00 0.00 41 1010.9
20260830212300 85 236 3.0 7.0 0.00 0.00 0.00 42 1010.9
20260830212158 85 229 3.0 7.0 0.00 0.00 0.00 42 1010.9
20260830212058 85 228 3.0 7.0 0.00 0.00 0.00 43 1010.9
20260830211958 85 235 4.0 9.0 0.00 0.00 0.00 43 1011.0
20260830211902 84 217 4.0 9.0 0.00 0.00 0.00 42 1011.0
20260830211856 85 217 4.0 9.0 0.00 0.00 0.00 42 1011.0
20260830211753 85 176 4.0 9.0 0.00 0.00 0.00 43 1011.0
20260830211649 85 219 4.0 9.0 0.00 0.00 0.00 43 1011.0
20260830211548 85 204 3.0 9.0 0.00 0.00 0.00 43 1011.0
20260830211449 85 218 4.0 9.0 0.00 0.00 0.00 43 1011.0
20260830211357 85 134 4.0 9.0 0.00 0.00 0.00 43 1011.1
20260830211348 85 142 4.0 9.0 0.00 0.00 0.00 43 1011.1
20260830211247 85 214 3.0 9.0 0.00 0.00 0.00 43 1011.0
20260830211144 85 226 3.0 9.0 0.00 0.00 0.00 43 1011.1
20260830211042 85 246 3.0 9.0 0.00 0.00 0.00 42 1011.0
20260830210942 86 228 3.0 8.0 0.00 0.00 0.00 41 1011.1
20260830210856 86 238 3.0 8.0 0.00 0.00 0.00 42 1011.0
20260830210842 86 255 3.0 8.0 0.00 0.00 0.00 42 1011.0
20260830210741 86 239 2.0 8.0 0.00 0.00 0.00 42 1011.0
20260830210638 86 278 2.0 8.0 0.00 0.00 0.00 42 1011.1
20260830210536 86 204 2.0 8.0 0.00 0.00 0.00 42 1011.1
20260830210435 85 188 2.0 7.0 0.00 0.00 0.00 42 1011.1
20260830210356 85 222 2.0 5.0 0.00 0.00 0.00 43 1011.1
20260830210336 85 318 2.0 5.0 0.00 0.00 0.00 43 1011.1
20260830210235 85 309 2.0 5.0 0.00 0.00 0.00 43 1011.1
20260830210130 85 138 2.0 5.0 0.00 0.00 0.00 44 1011.1
20260830210030 85 213 2.0 5.0 0.00 0.00 0.00 43 1011.2
20260830205931 85 141 2.0 8.0 0.00 0.00 0.00 42 1011.2
20260830205856 85 217 2.0 8.0 0.00 0.00 0.00 43 1011.2
20260830205830 85 222 2.0 8.0 0.00 0.00 0.00 43 1011.2
20260830205728 85 231 2.0 9.0 0.00 0.00 0.00 45 1011.2
20260830205622 85 213 3.0 9.0 0.00 0.00 0.00 45 1011.2
20260830205522 84 245 3.0 11.0 0.00 0.00 0.00 44 1011.2
20260830205422 84 245 3.0 11.0 0.00 0.00 0.00 44 1011.2
20260830205355 84 193 3.0 11.0 0.00 0.00 0.00 44 1011.2
20260830205322 84 197 3.0 11.0 0.00 0.00 0.00 45 1011.2
20260830205221 84 236 3.0 11.0 0.00 0.00 0.00 45 1011.3
20260830205118 84 238 3.0 11.0 0.00 0.00 0.00 44 1011.3
20260830205016 84 229 3.0 11.0 0.00 0.00 0.00 44 1011.3
20260830204916 84 231 2.0 11.0 0.00 0.00 0.00 44 1011.3
20260830204858 85 248 2.0 11.0 0.00 0.00 0.00 44 1011.3
20260830204816 85 249 2.0 11.0 0.00 0.00 0.00 43 1011.3
20260830204713 85 256 2.0 11.0 0.00 0.00 0.00 44 1011.2
20260830204608 85 201 1.0 9.0 0.00 0.00 0.00 44 1011.3
20260830204508 85 218 1.0 9.0 0.00 0.00 0.00 44 1011.3
20260830204408 85 197 2.0 9.0 0.00 0.00 0.00 44 1011.4
20260830204352 85 198 2.0 9.0 0.00 0.00 0.00 44 1011.4
20260830204308 85 270 2.0 9.0 0.00 0.00 0.00 45 1011.3
20260830204205 84 146 2.0 9.0 0.00 0.00 0.00 44 1011.4
20260830204100 84 212 2.0 9.0 0.00 0.00 0.00 45 1011.4
20260830204001 84 276 2.0 9.0 0.00 0.00 0.00 45 1011.4
20260830203859 84 242 2.0 9.0 0.00 0.00 0.00 44 1011.4
20260830203852 84 229 2.0 9.0 0.00 0.00 0.00 44 1011.4
20260830203800 84 245 2.0 9.0 0.00 0.00 0.00 45 1011.4
20260830203659 84 239 2.0 7.0 0.00 0.00 0.00 46 1011.4
20260830203600 84 169 2.0 7.0 0.00 0.00 0.00 45 1011.4
20260830203458 84 169 3.0 7.0 0.00 0.00 0.00 44 1011.4
20260830203357 84 169 2.0 7.0 0.00 0.00 0.00 44 1011.4
20260830203350 84 146 2.0 7.0 0.00 0.00 0.00 44 1011.4
20260830203256 84 217 2.0 7.0 0.00 0.00 0.00 45 1011.4
20260830203153 84 145 2.0 7.0 0.00 0.00 0.00 44 1011.5
20260830203048 84 200 2.0 7.0 0.00 0.00 0.00 44 1011.5
20260830202949 84 205 2.0 7.0 0.00 0.00 0.00 44 1011.5
20260830202854 85 242 2.0 7.0 0.00 0.00 0.00 44 1011.5
20260830202848 85 239 2.0 7.0 0.00 0.00 0.00 44 1011.5
20260830202748 85 217 2.0 7.0 0.00 0.00 0.00 44 1011.5
20260830202647 84 219 2.0 7.0 0.00 0.00 0.00 44 1011.6
20260830202542 84 208 2.0 7.0 0.00 0.00 0.00 45 1011.6
20260830202442 84 287 1.0 7.0 0.00 0.00 0.00 45 1011.5
20260830202341 84 141 2.0 7.0 0.00 0.00 0.00 45 1011.6
20260830202242 84 131 2.0 7.0 0.00 0.00 0.00 44 1011.6
20260830202141 84 208 2.0 7.0 0.00 0.00 0.00 45 1011.6
20260830202036 84 214 2.0 7.0 0.00 0.00 0.00 45 1011.6
20260830201936 84 248 2.0 6.0 0.00 0.00 0.00 47 1011.6
20260830201836 83 286 2.0 6.0 0.00 0.00 0.00 47 1011.6
20260830201736 83 224 2.0 5.0 0.00 0.00 0.00 47 1011.6
20260830201636 83 150 1.0 5.0 0.00 0.00 0.00 46 1011.6
20260830201614 83 321 1.0 5.0 0.00 0.00 0.00 46 1011.6
20260830201530 83 347 1.0 5.0 0.00 0.00 0.00 47 1011.6
20260830201501 83 347 1.0 5.0 0.00 0.00 0.00 46 1011.6
20260830201330 83 293 1.0 5.0 0.00 0.00 0.00 46 1011.6
20260830201230 83 325 1.0 5.0 0.00 0.00 0.00 46 1011.6
20260830201129 83 181 1.0 4.0 0.00 0.00 0.00 46 1011.7
20260830201025 83 208 1.0 4.0 0.00 0.00 0.00 46 1011.7
20260830200926 83 307 1.0 4.0 0.00 0.00 0.00 48 1011.7
20260830200848 83 283 1.0 4.0 0.00 0.00 0.00 48 1011.7
20260830200826 83 283 1.0 4.0 0.00 0.00 0.00 47 1011.7
20260830200726 83 285 1.0 4.0 0.00 0.00 0.00 48 1011.7
20260830200623 83 270 1.0 4.0 0.00 0.00 0.00 48 1011.7
20260830200518 83 229 1.0 4.0 0.00 0.00 0.00 48 1011.7
20260830200418 83 218 1.0 4.0 0.00 0.00 0.00 48 1011.7
20260830200345 83 302 2.0 4.0 0.00 0.00 0.00 48 1011.7
20260830200318 83 302 2.0 4.0 0.00 0.00 0.00 47 1011.7
20260830200218 83 212 2.0 4.0 0.00 0.00 0.00 48 1011.7
20260830200117 82 339 2.0 6.0 0.00 0.00 0.00 48 1011.7
20260830200014 82 339 2.0 6.0 0.00 0.00 0.00 49 1011.8
20260830195914 82 239 2.0 6.0 0.00 0.00 0.00 49 1011.8
20260830195844 82 239 2.0 6.0 0.00 0.00 0.00 49 1011.7
20260830195814 82 231 2.0 6.0 0.00 0.00 0.00 48 1011.7
20260830195712 82 131 2.0 6.0 0.00 0.00 0.00 48 1011.8
20260830195611 82 131 2.0 6.0 0.00 0.00 0.00 47 1011.8
20260830195508 82 228 2.0 6.0 0.00 0.00 0.00 47 1011.8
20260830195408 82 133 1.0 6.0 0.00 0.00 0.00 47 1011.8
20260830195343 82 214 1.0 6.0 0.00 0.00 0.00 47 1011.8
20260830195306 82 193 1.0 6.0 0.00 0.00 0.00 47 1011.8
20260830195206 82 235 1.0 6.0 0.00 0.00 0.00 48 1011.8
20260830195106 82 218 2.0 6.0 0.00 0.00 0.00 49 1011.8
20260830195002 82 218 2.0 6.0 0.00 0.00 0.00 49 1011.8
20260830194900 81 218 2.0 7.0 0.00 0.00 0.00 49 1011.8
20260830194841 81 218 2.0 7.0 0.00 0.00 0.00 48 1011.8
20260830194800 81 214 2.0 7.0 0.00 0.00 0.00 49 1011.9
20260830194700 81 102 1.0 7.0 0.00 0.00 0.00 49 1011.8
20260830194559 81 201 1.0 7.0 0.00 0.00 0.00 49 1011.9
20260830194458 81 228 1.0 7.0 0.00 0.00 0.00 49 1011.9
20260830194358 80 222 1.0 7.0 0.00 0.00 0.00 49 1011.9
20260830194341 80 221 1.0 7.0 0.00 0.00 0.00 50 1011.9
20260830194258 80 224 1.0 7.0 0.00 0.00 0.00 49 1011.9
20260830194155 80 222 1.0 7.0 0.00 0.00 0.00 48 1011.9
20260830194053 81 229 1.0 7.0 0.00 0.00 0.00 48 1012.0
20260830193948 81 238 0.0 7.0 0.00 0.00 0.00 49 1012.0
20260830193836 81 228 1.0 3.0 0.00 0.00 0.00 50 1011.9
20260830193748 81 183 1.0 3.0 0.00 0.00 0.00 50 1012.0
20260830193648 81 128 1.0 3.0 0.00 0.00 0.00 50 1012.0
20260830193547 80 128 1.0 6.0 0.00 0.00 0.00 50 1012.0
20260830193443 80 197 1.0 6.0 0.00 0.00 0.00 50 1012.0
20260830193334 80 197 1.0 6.0 0.00 0.00 0.00 51 1012.0
20260830193242 80 233 1.0 6.0 0.00 0.00 0.00 51 1012.1
20260830193141 80 219 1.0 6.0 0.00 0.00 0.00 52 1012.1
20260830193041 79 222 1.0 6.0 0.00 0.00 0.00 52 1012.1
20260830192938 79 236 1.0 6.0 0.00 0.00 0.00 52 1012.1
20260830192840 79 229 1.0 6.0 0.00 0.00 0.00 52 1012.1
20260830192832 79 228 1.0 6.0 0.00 0.00 0.00 52 1012.1
20260830192736 78 242 1.0 6.0 0.00 0.00 0.00 51 1012.1
20260830192634 78 257 1.0 6.0 0.00 0.00 0.00 52 1012.1
20260830192534 78 156 1.0 5.0 0.00 0.00 0.00 51 1012.1
20260830192428 78 5 1.0 5.0 0.00 0.00 0.00 51 1012.2
20260830192329 78 323 1.0 5.0 0.00 0.00 0.00 52 1012.2
20260830192228 78 332 1.0 5.0 0.00 0.00 0.00 52 1012.2
20260830192128 78 43 1.0 3.0 0.00 0.00 0.00 51 1012.2
20260830192027 79 138 1.0 3.0 0.00 0.00 0.00 50 1012.2
20260830191928 79 335 1.0 3.0 0.00 0.00 0.00 50 1012.3
20260830191826 79 340 1.0 3.0 0.00 0.00 0.00 51 1012.3
20260830191725 79 340 1.0 3.0 0.00 0.00 0.00 51 1012.3